Time,TemperatureF,DewpointF,PressureIn,WindDirection,WindDirectionDegrees,WindSpeedMPH,WindSpeedGustMPH,Humidity,HourlyPrecipIn,Conditions,Clouds,dailyrainin,SoftwareType,DateUTC
2013-02-26 00:00:00,27.7,-99.9,-100.00,North,359,0.0,0.0,-999,0.31,,---,0.00,VWS V14.01,2013-02-26 05:00:00,
2013-02-26 00:01:00,36.0,-99.9,-100.00,SSE,149,7.3,7.3,-999,0.00,,---,0.00,VWS V14.01,2013-02-26 05:01:00,
2013-02-26 00:02:00,36.3,-99.9,-100.00,East,83,5.7,7.3,-999,0.00,,---,0.00,VWS V14.01,2013-02-26 05:02:00,
2013-02-26 00:03:00,36.3,-99.9,-100.00,SSE,149,6.9,7.3,-999,0.00,,---,0.00,VWS V14.01,2013-02-26 05:03:00,
2013-02-26 00:04:00,36.8,-99.9,-100.00,ENE,69,6.6,12.5,-999,0.00,,---,0.00,VWS V14.01,2013-02-26 05:04:00,
2013-02-26 00:05:00,27.7,-99.9,-100.00,North,359,0.0,0.0,-999,0.00,,---,0.00,VWS V14.01,2013-02-26 05:05:00,
2013-02-26 00:06:00,36.3,-99.9,-100.00,East,87,4.7,12.5,-999,99.99,,---,0.00,VWS V14.01,2013-02-26 05:06:00,
2013-02-26 00:07:00,36.3,-99.9,-100.00,SE,143,7.7,12.5,-999,0.00,,---,0.00,VWS V14.01,2013-02-26 05:07:00,
2013-02-26 00:08:00,36.3,-99.9,-100.00,East,97,8.7,12.5,-999,99.99,,---,0.00,VWS V14.01,2013-02-26 05:08:00,
2013-02-26 00:09:00,36.3,-99.9,-100.00,SE,134,8.0,12.5,-999,54.29,,---,0.00,VWS V14.01,2013-02-26 05:09:00,
2013-02-26 00:10:00,27.7,-99.9,-100.00,North,359,0.0,0.0,-999,0.02,,---,0.00,VWS V14.01,2013-02-26 05:10:00,
2013-02-26 00:11:00,27.7,-99.9,-100.00,North,359,0.0,0.0,-999,0.00,,---,0.00,VWS V14.01,2013-02-26 05:11:00,
2013-02-26 00:12:00,36.3,-99.9,-100.00,SE,138,6.2,12.5,-999,0.00,,---,0.00,VWS V14.01,2013-02-26 05:12:00,
2013-02-26 00:13:00,36.3,-99.9,-100.00,ENE,65,6.3,12.5,-999,64.05,,---,0.00,VWS V14.01,2013-02-26 05:13:00,
2013-02-26 00:14:00,36.3,-99.9,-100.00,ENE,68,0.0,12.5,-999,0.00,,---,0.00,VWS V14.01,2013-02-26 05:14:00,
2013-02-26 00:15:00,27.7,-99.9,-100.00,North,359,0.0,0.0,-999,0.56,,---,0.00,VWS V14.01,2013-02-26 05:15:00,
2013-02-26 00:16:00,28.0,-99.9,-100.00,North,359,0.0,0.0,-999,58.56,,---,0.00,VWS V14.01,2013-02-26 05:16:00,
2013-02-26 00:17:00,36.3,-99.9,-100.00,ESE,108,5.0,12.5,-999,0.00,,---,0.00,VWS V14.01,2013-02-26 05:17:00,
2013-02-26 00:18:00,36.5,-99.9,-100.00,East,89,0.0,12.5,-999,99.99,,---,0.00,VWS V14.01,2013-02-26 05:18:00,
2013-02-26 00:19:00,36.3,-99.9,-100.00,East,89,0.0,12.5,-999,99.99,,---,0.00,VWS V14.01,2013-02-26 05:19:00,
2013-02-26 00:20:00,28.5,-99.9,-100.00,NE,49,0.0,0.0,-999,28.16,,---,0.00,VWS V14.01,2013-02-26 05:20:00,
2013-02-26 00:21:00,28.2,-99.9,-100.00,NE,49,0.0,0.0,-999,0.05,,---,0.00,VWS V14.01,2013-02-26 05:21:00,
2013-02-26 00:22:00,36.0,-99.9,-100.00,East,90,6.2,12.5,-999,24.69,,---,0.00,VWS V14.01,2013-02-26 05:22:00,
2013-02-26 00:23:00,36.5,-99.9,-100.00,ESE,114,19.1,19.1,-999,0.00,,---,0.00,VWS V14.01,2013-02-26 05:23:00,
2013-02-26 00:24:00,36.3,-99.9,-100.00,NE,45,5.2,19.1,-999,0.00,,---,0.00,VWS V14.01,2013-02-26 05:24:00,
2013-02-26 00:25:00,28.0,-99.9,-100.00,NE,49,0.0,0.0,-999,0.79,,---,0.00,VWS V14.01,2013-02-26 05:25:00,
2013-02-26 00:26:00,27.5,-99.9,-100.00,NE,49,0.0,0.0,-999,0.02,,---,0.00,VWS V14.01,2013-02-26 05:26:00,
2013-02-26 00:27:00,36.5,-99.9,-100.00,ENE,68,0.0,19.1,-999,0.00,,---,0.00,VWS V14.01,2013-02-26 05:27:00,
2013-02-26 00:28:00,36.0,-99.9,-100.00,ESE,108,10.4,19.1,-999,0.00,,---,0.00,VWS V14.01,2013-02-26 05:28:00,
2013-02-26 00:29:00,36.3,-99.9,-100.00,SSE,165,6.5,19.1,-999,0.00,,---,0.00,VWS V14.01,2013-02-26 05:29:00,
2013-02-26 00:30:00,27.7,-99.9,-100.00,NE,49,0.0,0.0,-999,1.00,,---,0.00,VWS V14.01,2013-02-26 05:30:00,
2013-02-26 00:31:00,27.7,-99.9,-100.00,NE,49,0.0,0.0,-999,1.47,,---,0.00,VWS V14.01,2013-02-26 05:31:00,
2013-02-26 00:32:00,36.5,-99.9,-100.00,SE,129,6.3,19.1,-999,0.00,,---,0.00,VWS V14.01,2013-02-26 05:32:00,
2013-02-26 00:33:00,36.3,-99.9,-100.00,NNE,22,3.4,19.1,-999,0.00,,---,0.00,VWS V14.01,2013-02-26 05:33:00,
2013-02-26 00:34:00,36.3,-99.9,-100.00,ESE,120,6.0,19.1,-999,99.99,,---,0.00,VWS V14.01,2013-02-26 05:34:00,
2013-02-26 00:35:00,27.7,-99.9,-100.00,NE,49,0.0,0.0,-999,81.92,,---,0.00,VWS V14.01,2013-02-26 05:35:00,
2013-02-26 00:36:00,27.7,-99.9,-100.00,NE,49,0.0,0.0,-999,81.92,,---,0.00,VWS V14.01,2013-02-26 05:36:00,
2013-02-26 00:37:00,36.5,-99.9,-100.00,NE,37,9.9,19.1,-999,0.00,,---,0.00,VWS V14.01,2013-02-26 05:37:00,
2013-02-26 00:38:00,36.3,-99.9,-100.00,SE,127,7.4,19.1,-999,54.29,,---,0.00,VWS V14.01,2013-02-26 05:38:00,
2013-02-26 00:39:00,36.5,-99.9,-100.00,ENE,75,4.8,19.1,-999,0.00,,---,0.00,VWS V14.01,2013-02-26 05:39:00,
2013-02-26 00:40:00,27.7,-99.9,-100.00,NE,49,0.0,0.0,-999,0.77,,---,0.00,VWS V14.01,2013-02-26 05:40:00,
2013-02-26 00:41:00,27.5,-99.9,-100.00,NE,49,0.0,0.0,-999,0.56,,---,0.00,VWS V14.01,2013-02-26 05:41:00,
2013-02-26 00:42:00,36.5,-99.9,-100.00,ESE,108,6.2,19.1,-999,49.33,,---,0.00,VWS V14.01,2013-02-26 05:42:00,
2013-02-26 00:43:00,36.5,-99.9,-100.00,ESE,112,8.6,19.1,-999,99.99,,---,0.00,VWS V14.01,2013-02-26 05:43:00,
2013-02-26 00:44:00,36.3,-99.9,-100.00,ESE,107,5.1,19.1,-999,0.00,,---,0.00,VWS V14.01,2013-02-26 05:44:00,
2013-02-26 00:45:00,28.0,-99.9,-100.00,NE,49,0.0,0.0,-999,8.28,,---,0.00,VWS V14.01,2013-02-26 05:45:00,
2013-02-26 00:46:00,27.7,-99.9,-100.00,NE,49,0.0,0.0,-999,1.87,,---,0.00,VWS V14.01,2013-02-26 05:46:00,
2013-02-26 00:47:00,36.3,-99.9,-100.00,ESE,118,9.3,19.1,-999,99.99,,---,0.00,VWS V14.01,2013-02-26 05:47:00,
2013-02-26 00:48:00,36.5,-99.9,-100.00,East,100,7.4,19.1,-999,0.00,,---,0.00,VWS V14.01,2013-02-26 05:48:00,
2013-02-26 00:49:00,36.3,-99.9,-100.00,NE,45,7.5,19.1,-999,49.33,,---,0.00,VWS V14.01,2013-02-26 05:49:00,
2013-02-26 00:50:00,36.3,-99.9,-100.00,ESE,110,10.1,19.1,-999,0.00,,---,0.00,VWS V14.01,2013-02-26 05:50:00,
2013-02-26 00:51:00,27.5,-99.9,-100.00,NE,49,0.0,0.0,-999,0.00,,---,0.00,VWS V14.01,2013-02-26 05:51:00,
2013-02-26 00:52:00,36.3,-99.9,-100.00,ENE,59,0.0,19.1,-999,0.00,,---,0.00,VWS V14.01,2013-02-26 05:52:00,
2013-02-26 00:53:00,36.3,-99.9,-100.00,ESE,107,5.8,19.1,-999,0.00,,---,0.00,VWS V14.01,2013-02-26 05:53:00,
2013-02-26 00:54:00,36.3,-99.9,-100.00,SSE,166,5.4,19.1,-999,0.00,,---,0.00,VWS V14.01,2013-02-26 05:54:00,
2013-02-26 00:55:00,36.5,-99.9,-100.00,ESE,121,8.4,19.1,-999,49.33,,---,0.00,VWS V14.01,2013-02-26 05:55:00,
2013-02-26 00:56:00,27.2,-99.9,-100.00,NE,49,0.0,0.0,-999,8.48,,---,0.00,VWS V14.01,2013-02-26 05:56:00,
2013-02-26 00:57:00,36.5,-99.9,-100.00,East,94,7.1,19.1,-999,0.00,,---,0.00,VWS V14.01,2013-02-26 05:57:00,
2013-02-26 01:01:00,27.7,-99.9,-100.00,NE,49,0.0,0.0,-999,8.28,,---,0.00,VWS V14.01,2013-02-26 06:01:00,
2013-02-26 01:06:00,27.7,-99.9,-100.00,NE,49,0.0,0.0,-999,0.00,,---,0.00,VWS V14.01,2013-02-26 06:06:00,
2013-02-26 01:11:00,27.5,-99.9,-100.00,NE,49,0.0,0.0,-999,0.00,,---,0.00,VWS V14.01,2013-02-26 06:11:00,
2013-02-26 01:16:00,27.7,-99.9,-100.00,NE,49,0.0,0.0,-999,0.00,,---,0.00,VWS V14.01,2013-02-26 06:16:00,
2013-02-26 01:21:00,27.7,-99.9,-100.00,NE,49,0.0,0.0,-999,99.99,,---,0.00,VWS V14.01,2013-02-26 06:21:00,
2013-02-26 01:26:00,28.0,-99.9,-100.00,NE,49,0.0,0.0,-999,99.99,,---,0.00,VWS V14.01,2013-02-26 06:26:00,
2013-02-26 01:31:00,28.2,-99.9,-100.00,NE,49,0.0,0.0,-999,0.00,,---,0.00,VWS V14.01,2013-02-26 06:31:00,
2013-02-26 01:36:00,28.2,-99.9,-100.00,NE,49,0.0,0.0,-999,0.00,,---,0.00,VWS V14.01,2013-02-26 06:36:00,
2013-02-26 01:37:00,28.5,-99.9,-100.00,NE,49,0.0,0.0,-999,0.00,,---,0.00,VWS V14.01,2013-02-26 06:37:00,
2013-02-26 01:41:00,28.2,-99.9,-100.00,NE,49,0.0,0.0,-999,0.23,,---,0.00,VWS V14.01,2013-02-26 06:41:00,
2013-02-26 01:42:00,28.2,-99.9,-100.00,NE,49,0.0,0.0,-999,0.00,,---,0.00,VWS V14.01,2013-02-26 06:42:00,
2013-02-26 01:46:00,27.7,-99.9,-100.00,NE,49,0.0,0.0,-999,0.00,,---,0.00,VWS V14.01,2013-02-26 06:46:00,
2013-02-26 01:47:00,27.7,-99.9,-100.00,NE,49,0.0,0.0,-999,8.23,,---,0.00,VWS V14.01,2013-02-26 06:47:00,
2013-02-26 01:51:00,28.0,-99.9,-100.00,NE,49,0.0,0.0,-999,0.00,,---,0.00,VWS V14.01,2013-02-26 06:51:00,
2013-02-26 01:52:00,28.5,-99.9,-100.00,NE,49,0.0,0.0,-999,0.00,,---,0.00,VWS V14.01,2013-02-26 06:52:00,
2013-02-26 01:57:00,28.2,-99.9,-100.00,NE,49,0.0,0.0,-999,50.08,,---,0.00,VWS V14.01,2013-02-26 06:57:00,
2013-02-26 02:02:00,28.8,-99.9,-100.00,NE,49,0.0,0.0,-999,99.99,,---,0.00,VWS V14.01,2013-02-26 07:02:00,
2013-02-26 02:07:00,28.5,-99.9,-100.00,NE,49,0.0,0.0,-999,7.92,,---,0.00,VWS V14.01,2013-02-26 07:07:00,
2013-02-26 02:12:00,28.8,-99.9,-100.00,NE,39,5.6,5.6,-999,0.00,,---,0.00,VWS V14.01,2013-02-26 07:12:00,
2013-02-26 02:13:00,28.8,-99.9,-100.00,NE,34,0.0,2.8,-999,10.05,,---,0.00,VWS V14.01,2013-02-26 07:13:00,
2013-02-26 02:17:00,29.0,-99.9,-100.00,NE,48,0.0,0.0,-999,0.06,,---,0.00,VWS V14.01,2013-02-26 07:17:00,
2013-02-26 02:18:00,29.0,-99.9,-100.00,NE,51,0.0,0.0,-999,0.00,,---,0.00,VWS V14.01,2013-02-26 07:18:00,
2013-02-26 02:22:00,29.0,-99.9,-100.00,NE,51,0.0,0.0,-999,0.00,,---,0.00,VWS V14.01,2013-02-26 07:22:00,
2013-02-26 02:23:00,29.2,-99.9,-100.00,NE,51,0.0,0.0,-999,0.00,,---,0.00,VWS V14.01,2013-02-26 07:23:00,
2013-02-26 02:27:00,29.0,-99.9,-100.00,NE,51,0.0,0.0,-999,0.00,,---,0.00,VWS V14.01,2013-02-26 07:27:00,
2013-02-26 02:28:00,29.2,-99.9,-100.00,NE,51,0.0,0.0,-999,0.00,,---,0.00,VWS V14.01,2013-02-26 07:28:00,
2013-02-26 02:32:00,29.2,-99.9,-100.00,NE,51,0.0,0.0,-999,99.99,,---,0.00,VWS V14.01,2013-02-26 07:32:00,
2013-02-26 02:33:00,29.2,-99.9,-100.00,NE,51,0.0,0.0,-999,15.87,,---,0.00,VWS V14.01,2013-02-26 07:33:00,
2013-02-26 02:37:00,29.5,-99.9,-100.00,NE,51,0.0,0.0,-999,2.53,,---,0.00,VWS V14.01,2013-02-26 07:37:00,
2013-02-26 02:38:00,29.2,-99.9,-100.00,NE,51,0.0,0.0,-999,0.00,,---,0.00,VWS V14.01,2013-02-26 07:38:00,
2013-02-26 02:42:00,29.2,-99.9,-100.00,NE,51,0.0,0.0,-999,57.56,,---,0.00,VWS V14.01,2013-02-26 07:42:00,
2013-02-26 02:43:00,29.7,-99.9,-100.00,NE,51,0.0,0.0,-999,0.00,,---,0.00,VWS V14.01,2013-02-26 07:43:00,
2013-02-26 02:47:00,29.2,-99.9,-100.00,NE,51,0.0,0.0,-999,0.00,,---,0.00,VWS V14.01,2013-02-26 07:47:00,
2013-02-26 02:48:00,29.0,-99.9,-100.00,NE,51,0.0,0.0,-999,0.00,,---,0.00,VWS V14.01,2013-02-26 07:48:00,
2013-02-26 02:52:00,29.5,-99.9,-100.00,NE,51,0.0,0.0,-999,0.00,,---,0.00,VWS V14.01,2013-02-26 07:52:00,
2013-02-26 02:53:00,29.7,-99.9,-100.00,NE,51,0.0,0.0,-999,0.05,,---,0.00,VWS V14.01,2013-02-26 07:53:00,
2013-02-26 02:57:00,29.2,-99.9,-100.00,NE,51,0.0,0.0,-999,0.00,,---,0.00,VWS V14.01,2013-02-26 07:57:00,
2013-02-26 02:58:00,29.2,-99.9,-100.00,NE,51,0.0,0.0,-999,99.99,,---,0.00,VWS V14.01,2013-02-26 07:58:00,
2013-02-26 03:02:00,29.2,-99.9,-100.00,NE,51,0.0,0.0,-999,0.00,,---,0.00,VWS V14.01,2013-02-26 08:02:00,
2013-02-26 03:03:00,29.2,-99.9,-100.00,NE,51,0.0,0.0,-999,1.90,,---,0.00,VWS V14.01,2013-02-26 08:03:00,
2013-02-26 03:07:00,29.2,-99.9,-100.00,NE,51,0.0,0.0,-999,0.00,,---,0.00,VWS V14.01,2013-02-26 08:07:00,
2013-02-26 03:08:00,29.7,-99.9,-100.00,NE,51,0.0,0.0,-999,0.87,,---,0.00,VWS V14.01,2013-02-26 08:08:00,
2013-02-26 03:12:00,29.2,-99.9,-100.00,NE,51,0.0,0.0,-999,0.05,,---,0.00,VWS V14.01,2013-02-26 08:12:00,
2013-02-26 03:13:00,29.2,-99.9,-100.00,NE,51,0.0,0.0,-999,0.00,,---,0.00,VWS V14.01,2013-02-26 08:13:00,
2013-02-26 03:14:00,29.2,-99.9,-100.00,NE,51,0.0,0.0,-999,0.00,,---,0.00,VWS V14.01,2013-02-26 08:14:00,
2013-02-26 03:17:00,28.5,-99.9,-100.00,NE,51,0.0,0.0,-999,2.32,,---,0.00,VWS V14.01,2013-02-26 08:17:00,
2013-02-26 03:18:00,29.1,-99.9,-100.00,NE,51,0.0,0.0,-999,0.50,,---,0.00,VWS V14.01,2013-02-26 08:18:00,
2013-02-26 03:19:00,28.5,-99.9,-100.00,NE,51,0.0,0.0,-999,1.40,,---,0.00,VWS V14.01,2013-02-26 08:19:00,
2013-02-26 03:22:00,28.8,-99.9,-100.00,NE,51,0.0,0.0,-999,0.91,,---,0.00,VWS V14.01,2013-02-26 08:22:00,
2013-02-26 03:23:00,28.8,-99.9,-100.00,NE,42,3.4,3.4,-999,0.00,,---,0.00,VWS V14.01,2013-02-26 08:23:00,
2013-02-26 03:24:00,28.8,-99.9,-100.00,NNE,17,0.0,0.0,-999,99.99,,---,0.00,VWS V14.01,2013-02-26 08:24:00,
2013-02-26 03:27:00,29.0,-99.9,-100.00,NNE,17,0.0,0.0,-999,79.39,,---,0.00,VWS V14.01,2013-02-26 08:27:00,
2013-02-26 03:28:00,29.0,-99.9,-100.00,NNE,17,0.0,0.0,-999,99.99,,---,0.00,VWS V14.01,2013-02-26 08:28:00,
2013-02-26 03:29:00,29.0,-99.9,-100.00,NNE,17,0.0,0.0,-999,0.00,,---,0.00,VWS V14.01,2013-02-26 08:29:00,
2013-02-26 03:33:00,28.8,-99.9,-100.00,NNE,17,0.0,0.0,-999,0.00,,---,0.00,VWS V14.01,2013-02-26 08:33:00,
2013-02-26 03:34:00,28.8,-99.9,-100.00,ENE,66,0.0,3.1,-999,1.60,,---,0.00,VWS V14.01,2013-02-26 08:34:00,
2013-02-26 03:38:00,28.8,-99.9,-100.00,ENE,59,0.0,0.0,-999,0.00,,---,0.00,VWS V14.01,2013-02-26 08:38:00,
2013-02-26 03:39:00,28.8,-99.9,-100.00,ENE,59,0.0,0.0,-999,0.00,,---,0.00,VWS V14.01,2013-02-26 08:39:00,
2013-02-26 03:43:00,28.5,-99.9,-100.00,ENE,59,0.0,0.0,-999,2.26,,---,0.00,VWS V14.01,2013-02-26 08:43:00,
2013-02-26 03:44:00,28.5,-99.9,-100.00,ENE,59,0.0,0.0,-999,0.00,,---,0.00,VWS V14.01,2013-02-26 08:44:00,
2013-02-26 03:48:00,28.5,-99.9,-100.00,ENE,59,0.0,0.0,-999,14.74,,---,0.00,VWS V14.01,2013-02-26 08:48:00,
2013-02-26 03:49:00,28.2,-99.9,-100.00,ENE,59,0.0,0.0,-999,0.00,,---,0.00,VWS V14.01,2013-02-26 08:49:00,
2013-02-26 03:53:00,28.8,-99.9,-100.00,ENE,59,0.0,0.0,-999,8.28,,---,0.00,VWS V14.01,2013-02-26 08:53:00,
2013-02-26 03:54:00,29.3,-99.9,-100.00,ENE,59,0.0,0.0,-999,0.00,,---,0.00,VWS V14.01,2013-02-26 08:54:00,
2013-02-26 03:58:00,28.5,-99.9,-100.00,NE,55,3.0,3.4,-999,0.00,,---,0.00,VWS V14.01,2013-02-26 08:58:00,
2013-02-26 03:59:00,28.5,-99.9,-100.00,NE,55,0.0,0.0,-999,0.00,,---,0.00,VWS V14.01,2013-02-26 08:59:00,
2013-02-26 04:03:00,28.5,-99.9,-100.00,NNE,30,0.0,0.0,-999,56.66,,---,0.00,VWS V14.01,2013-02-26 09:03:00,
2013-02-26 04:04:00,28.5,-99.9,-100.00,ENE,66,4.3,4.3,-999,0.00,,---,0.00,VWS V14.01,2013-02-26 09:04:00,
2013-02-26 04:05:00,28.8,-99.9,-100.00,ENE,66,0.0,0.0,-999,0.00,,---,0.00,VWS V14.01,2013-02-26 09:05:00,
2013-02-26 04:08:00,29.0,-99.9,-100.00,ENE,66,0.0,0.0,-999,0.00,,---,0.00,VWS V14.01,2013-02-26 09:08:00,
2013-02-26 04:09:00,28.8,-99.9,-100.00,ENE,65,5.1,5.6,-999,0.00,,---,0.00,VWS V14.01,2013-02-26 09:09:00,
2013-02-26 04:10:00,28.8,-99.9,-100.00,ENE,75,0.0,4.3,-999,57.56,,---,0.00,VWS V14.01,2013-02-26 09:10:00,
2013-02-26 04:13:00,29.0,-99.9,-100.00,ENE,75,0.0,0.0,-999,99.99,,---,0.00,VWS V14.01,2013-02-26 09:13:00,
2013-02-26 04:14:00,28.8,-99.9,-100.00,ENE,75,0.0,0.0,-999,1.47,,---,0.00,VWS V14.01,2013-02-26 09:14:00,
2013-02-26 04:15:00,28.5,-99.9,-100.00,ENE,75,0.0,0.0,-999,0.00,,---,0.00,VWS V14.01,2013-02-26 09:15:00,
2013-02-26 04:18:00,28.5,-99.9,-100.00,ENE,75,0.0,0.0,-999,99.99,,---,0.00,VWS V14.01,2013-02-26 09:18:00,
2013-02-26 04:19:00,29.3,-99.9,-100.00,ENE,75,0.0,0.0,-999,99.99,,---,0.00,VWS V14.01,2013-02-26 09:19:00,
2013-02-26 04:20:00,29.3,-99.9,-100.00,ENE,75,0.0,0.0,-999,14.74,,---,0.00,VWS V14.01,2013-02-26 09:20:00,
2013-02-26 04:23:00,29.5,-99.9,-100.00,ENE,75,0.0,0.0,-999,1.06,,---,0.00,VWS V14.01,2013-02-26 09:23:00,
2013-02-26 04:24:00,29.0,-99.9,-100.00,ENE,75,0.0,0.0,-999,99.99,,---,0.00,VWS V14.01,2013-02-26 09:24:00,
2013-02-26 04:25:00,29.3,-99.9,-100.00,ENE,75,0.0,0.0,-999,0.00,,---,0.00,VWS V14.01,2013-02-26 09:25:00,
2013-02-26 04:28:00,28.8,-99.9,-100.00,ENE,75,0.0,0.0,-999,0.00,,---,0.00,VWS V14.01,2013-02-26 09:28:00,
2013-02-26 04:29:00,29.0,-99.9,-100.00,ENE,75,0.0,0.0,-999,0.00,,---,0.00,VWS V14.01,2013-02-26 09:29:00,
2013-02-26 04:30:00,29.3,-99.9,-100.00,ENE,75,0.0,0.0,-999,2.53,,---,0.00,VWS V14.01,2013-02-26 09:30:00,
2013-02-26 04:33:00,29.0,-99.9,-100.00,ENE,75,0.0,0.0,-999,0.48,,---,0.00,VWS V14.01,2013-02-26 09:33:00,
2013-02-26 04:34:00,29.0,-99.9,-100.00,ENE,75,0.0,0.0,-999,99.99,,---,0.00,VWS V14.01,2013-02-26 09:34:00,
2013-02-26 04:35:00,28.5,-99.9,-100.00,ENE,75,0.0,0.0,-999,0.00,,---,0.00,VWS V14.01,2013-02-26 09:35:00,
2013-02-26 04:38:00,29.0,-99.9,-100.00,NE,39,4.9,4.9,-999,5.75,,---,0.00,VWS V14.01,2013-02-26 09:38:00,
2013-02-26 04:39:00,29.0,-99.9,-100.00,ENE,72,5.8,5.8,-999,99.99,,---,0.00,VWS V14.01,2013-02-26 09:39:00,
2013-02-26 04:40:00,29.0,-99.9,-100.00,ENE,62,5.2,5.2,-999,0.00,,---,0.00,VWS V14.01,2013-02-26 09:40:00,
2013-02-26 04:41:00,29.0,-99.9,-100.00,ENE,62,5.2,5.2,-999,0.00,,---,0.00,VWS V14.01,2013-02-26 09:41:00,
2013-02-26 04:43:00,29.0,-99.9,-100.00,NE,41,5.5,5.5,-999,2.53,,---,0.00,VWS V14.01,2013-02-26 09:43:00,
2013-02-26 04:44:00,29.3,-99.9,-100.00,NE,48,5.7,6.6,-999,0.00,,---,0.00,VWS V14.01,2013-02-26 09:44:00,
2013-02-26 04:45:00,29.3,-99.9,-100.00,NE,48,0.0,0.0,-999,19.60,,---,0.00,VWS V14.01,2013-02-26 09:45:00,
2013-02-26 04:46:00,29.3,-99.9,-100.00,NE,48,0.0,0.0,-999,0.44,,---,0.00,VWS V14.01,2013-02-26 09:46:00,
2013-02-26 04:49:00,29.5,-99.9,-100.00,NE,46,7.6,7.6,-999,41.92,,---,0.00,VWS V14.01,2013-02-26 09:49:00,
2013-02-26 04:51:00,29.5,-99.9,-100.00,ENE,62,5.4,5.4,-999,1.67,,---,0.00,VWS V14.01,2013-02-26 09:51:00,
2013-02-26 04:54:00,29.8,-99.9,-100.00,ENE,73,5.8,5.9,-999,99.99,,---,0.00,VWS V14.01,2013-02-26 09:54:00,
2013-02-26 04:56:00,29.5,-99.9,-100.00,ENE,59,4.3,5.2,-999,1.40,,---,0.00,VWS V14.01,2013-02-26 09:56:00,
2013-02-26 04:59:00,29.5,-99.9,-100.00,NE,46,0.0,3.5,-999,0.44,,---,0.00,VWS V14.01,2013-02-26 09:59:00,
2013-02-26 05:01:00,29.5,-99.9,-100.00,NE,46,0.0,0.0,-999,0.00,,---,0.00,VWS V14.01,2013-02-26 10:01:00,
2013-02-26 05:02:00,29.5,-99.9,-100.00,NE,46,0.0,0.0,-999,0.00,,---,0.00,VWS V14.01,2013-02-26 10:02:00,
2013-02-26 05:04:00,29.5,-99.9,-100.00,NE,46,0.0,0.0,-999,0.00,,---,0.00,VWS V14.01,2013-02-26 10:04:00,
2013-02-26 05:06:00,30.0,-99.9,-100.00,NE,46,0.0,0.0,-999,1.97,,---,0.00,VWS V14.01,2013-02-26 10:06:00,
2013-02-26 05:07:00,30.0,-99.9,-100.00,NE,46,0.0,0.0,-999,0.00,,---,0.00,VWS V14.01,2013-02-26 10:07:00,
2013-02-26 05:09:00,29.5,-99.9,-100.00,East,84,5.5,5.5,-999,1.40,,---,0.00,VWS V14.01,2013-02-26 10:09:00,
2013-02-26 05:11:00,29.8,-99.9,-100.00,ENE,68,4.5,5.6,-999,99.99,,---,0.00,VWS V14.01,2013-02-26 10:11:00,
2013-02-26 05:12:00,29.0,-99.9,-100.00,ENE,63,5.1,5.4,-999,1.00,,---,0.00,VWS V14.01,2013-02-26 10:12:00,
2013-02-26 05:14:00,29.8,-99.9,-100.00,NNE,28,4.7,6.2,-999,0.00,,---,0.00,VWS V14.01,2013-02-26 10:14:00,
2013-02-26 05:16:00,29.8,-99.9,-100.00,NE,37,4.5,4.5,-999,2.52,,---,0.00,VWS V14.01,2013-02-26 10:16:00,
2013-02-26 05:17:00,29.5,-99.9,-100.00,ENE,63,6.0,7.1,-999,3.63,,---,0.00,VWS V14.01,2013-02-26 10:17:00,
2013-02-26 05:19:00,29.8,-99.9,-100.00,NE,56,6.0,6.0,-999,18.23,,---,0.00,VWS V14.01,2013-02-26 10:19:00,
2013-02-26 05:21:00,29.8,-99.9,-100.00,NE,48,8.1,8.1,-999,0.00,,---,0.00,VWS V14.01,2013-02-26 10:21:00,
2013-02-26 05:22:00,29.8,-99.9,-100.00,NE,56,5.0,7.3,-999,0.00,,---,0.00,VWS V14.01,2013-02-26 10:22:00,
2013-02-26 05:24:00,30.0,-99.9,-100.00,NNE,28,0.0,6.4,-999,21.95,,---,0.00,VWS V14.01,2013-02-26 10:24:00,
2013-02-26 05:25:00,30.0,-99.9,-100.00,ENE,72,5.0,5.0,-999,0.00,,---,0.00,VWS V14.01,2013-02-26 10:25:00,
2013-02-26 05:26:00,30.3,-99.9,-100.00,ENE,66,3.5,3.5,-999,0.00,,---,0.00,VWS V14.01,2013-02-26 10:26:00,
2013-02-26 05:27:00,29.5,-99.9,-100.00,NE,37,4.9,7.1,-999,0.00,,---,0.00,VWS V14.01,2013-02-26 10:27:00,
2013-02-26 05:29:00,29.8,-99.9,-100.00,ENE,65,6.6,6.8,-999,0.00,,---,0.00,VWS V14.01,2013-02-26 10:29:00,
2013-02-26 05:30:00,30.0,-99.9,-100.00,ENE,66,6.9,6.9,-999,0.00,,---,0.00,VWS V14.01,2013-02-26 10:30:00,
2013-02-26 05:31:00,30.0,-99.9,-100.00,ENE,76,6.3,7.5,-999,99.99,,---,0.00,VWS V14.01,2013-02-26 10:31:00,
2013-02-26 05:32:00,29.5,-99.9,-100.00,NE,55,7.1,7.1,-999,3.46,,---,0.00,VWS V14.01,2013-02-26 10:32:00,
2013-02-26 05:35:00,30.3,-99.9,-100.00,NE,44,3.5,3.5,-999,0.00,,---,0.00,VWS V14.01,2013-02-26 10:35:00,
2013-02-26 05:36:00,30.3,-99.9,-100.00,NE,49,3.4,7.0,-999,7.10,,---,0.00,VWS V14.01,2013-02-26 10:36:00,
2013-02-26 05:37:00,30.3,-99.9,-100.00,NNE,32,4.2,6.1,-999,21.95,,---,0.00,VWS V14.01,2013-02-26 10:37:00,
2013-02-26 05:40:00,30.3,-99.9,-100.00,ENE,75,6.8,7.0,-999,0.00,,---,0.00,VWS V14.01,2013-02-26 10:40:00,
2013-02-26 05:41:00,30.0,-99.9,-100.00,NE,39,6.3,6.3,-999,2.19,,---,0.00,VWS V14.01,2013-02-26 10:41:00,
2013-02-26 05:42:00,29.8,-99.9,-100.00,NE,42,0.0,6.5,-999,0.00,,---,0.00,VWS V14.01,2013-02-26 10:42:00,
2013-02-26 05:45:00,29.8,-99.9,-100.00,NE,35,5.0,6.1,-999,3.66,,---,0.00,VWS V14.01,2013-02-26 10:45:00,
2013-02-26 05:47:00,30.0,-99.9,-100.00,NE,48,5.3,6.4,-999,0.00,,---,0.00,VWS V14.01,2013-02-26 10:47:00,
2013-02-26 05:48:00,30.0,-99.9,-100.00,NE,44,3.5,4.8,-999,99.99,,---,0.00,VWS V14.01,2013-02-26 10:48:00,
2013-02-26 05:50:00,30.3,-99.9,-100.00,NE,49,7.8,7.8,-999,99.99,,---,0.00,VWS V14.01,2013-02-26 10:50:00,
2013-02-26 05:52:00,30.0,-99.9,-100.00,NE,51,7.6,7.6,-999,0.00,,---,0.00,VWS V14.01,2013-02-26 10:52:00,
2013-02-26 05:53:00,30.0,-99.9,-100.00,East,82,0.0,3.0,-999,0.00,,---,0.00,VWS V14.01,2013-02-26 10:53:00,
2013-02-26 05:55:00,30.0,-99.9,-100.00,NE,38,4.7,7.8,-999,0.00,,---,0.00,VWS V14.01,2013-02-26 10:55:00,
2013-02-26 05:57:00,30.5,-99.9,-100.00,ENE,69,6.3,7.0,-999,53.96,,---,0.00,VWS V14.01,2013-02-26 10:57:00,
2013-02-26 05:58:00,30.3,-99.9,-100.00,ENE,60,6.6,7.3,-999,2.53,,---,0.00,VWS V14.01,2013-02-26 10:58:00,
2013-02-26 06:00:00,30.3,-99.9,-100.00,NE,37,0.0,0.0,-999,0.87,,---,0.00,VWS V14.01,2013-02-26 11:00:00,
2013-02-26 06:02:00,30.3,-99.9,-100.00,ENE,65,5.3,6.0,-999,99.99,,---,0.00,VWS V14.01,2013-02-26 11:02:00,
2013-02-26 06:03:00,30.3,-99.9,-100.00,East,91,5.3,5.3,-999,55.36,,---,0.00,VWS V14.01,2013-02-26 11:03:00,
2013-02-26 06:05:00,30.3,-99.9,-100.00,East,80,6.6,6.6,-999,0.00,,---,0.00,VWS V14.01,2013-02-26 11:05:00,
2013-02-26 06:07:00,30.3,-99.9,-100.00,ENE,76,0.0,0.0,-999,66.96,,---,0.00,VWS V14.01,2013-02-26 11:07:00,
2013-02-26 06:08:00,30.3,-99.9,-100.00,East,84,5.6,5.6,-999,2.75,,---,0.00,VWS V14.01,2013-02-26 11:08:00,
2013-02-26 06:10:00,30.3,-99.9,-100.00,NE,39,0.0,0.0,-999,2.82,,---,0.00,VWS V14.01,2013-02-26 11:10:00,
2013-02-26 06:11:00,30.3,-99.9,-100.00,ESE,112,4.7,4.7,-999,0.00,,---,0.00,VWS V14.01,2013-02-26 11:11:00,
2013-02-26 06:12:00,30.8,-99.9,-100.00,NE,55,3.4,4.8,-999,2.08,,---,0.00,VWS V14.01,2013-02-26 11:12:00,
2013-02-26 06:14:00,30.5,-99.9,-100.00,NE,55,0.0,0.0,-999,0.44,,---,0.00,VWS V14.01,2013-02-26 11:14:00,
2013-02-26 06:15:00,30.5,-99.9,-100.00,NE,55,0.0,0.0,-999,10.10,,---,0.00,VWS V14.01,2013-02-26 11:15:00,
2013-02-26 06:16:00,30.5,-99.9,-100.00,NE,55,0.0,0.0,-999,99.99,,---,0.00,VWS V14.01,2013-02-26 11:16:00,
2013-02-26 06:18:00,30.3,-99.9,-100.00,NE,55,0.0,0.0,-999,0.00,,---,0.00,VWS V14.01,2013-02-26 11:18:00,
2013-02-26 06:19:00,30.3,-99.9,-100.00,NE,49,4.1,4.7,-999,0.00,,---,0.00,VWS V14.01,2013-02-26 11:19:00,
2013-02-26 06:20:00,30.3,-99.9,-100.00,East,98,4.2,7.8,-999,0.00,,---,0.00,VWS V14.01,2013-02-26 11:20:00,
2013-02-26 06:21:00,31.0,-99.9,-100.00,East,86,5.0,5.0,-999,0.00,,---,0.00,VWS V14.01,2013-02-26 11:21:00,
2013-02-26 06:23:00,30.5,-99.9,-100.00,ENE,70,0.0,0.0,-999,57.03,,---,0.00,VWS V14.01,2013-02-26 11:23:00,
2013-02-26 06:24:00,30.3,-99.9,-100.00,ENE,70,0.0,0.0,-999,0.00,,---,0.00,VWS V14.01,2013-02-26 11:24:00,
2013-02-26 06:25:00,30.5,-99.9,-100.00,ENE,70,0.0,0.0,-999,0.00,,---,0.00,VWS V14.01,2013-02-26 11:25:00,
2013-02-26 06:26:00,30.8,-99.9,-100.00,ENE,70,0.0,0.0,-999,1.70,,---,0.00,VWS V14.01,2013-02-26 11:26:00,
2013-02-26 06:28:00,30.5,-99.9,-100.00,ENE,75,0.0,0.0,-999,8.28,,---,0.00,VWS V14.01,2013-02-26 11:28:00,
2013-02-26 06:29:00,30.3,-99.9,-100.00,ENE,75,0.0,0.0,-999,7.28,,---,0.00,VWS V14.01,2013-02-26 11:29:00,
2013-02-26 06:30:00,30.8,-99.9,-100.00,ENE,75,0.0,0.0,-999,0.00,,---,0.00,VWS V14.01,2013-02-26 11:30:00,
2013-02-26 06:31:00,30.5,-99.9,-100.00,ENE,75,0.0,0.0,-999,99.99,,---,0.00,VWS V14.01,2013-02-26 11:31:00,
2013-02-26 06:33:00,30.8,-99.9,-100.00,ENE,75,0.0,0.0,-999,99.99,,---,0.00,VWS V14.01,2013-02-26 11:33:00,
2013-02-26 06:34:00,30.3,-99.9,-100.00,ENE,75,0.0,0.0,-999,0.00,,---,0.00,VWS V14.01,2013-02-26 11:34:00,
2013-02-26 06:35:00,30.5,-99.9,-100.00,NNE,20,0.0,3.4,-999,0.00,,---,0.00,VWS V14.01,2013-02-26 11:35:00,
2013-02-26 06:36:00,30.3,-99.9,-100.00,NNE,20,0.0,0.0,-999,0.00,,---,0.00,VWS V14.01,2013-02-26 11:36:00,
2013-02-26 06:38:00,30.5,-99.9,-100.00,ENE,76,6.4,7.7,-999,0.00,,---,0.00,VWS V14.01,2013-02-26 11:38:00,
2013-02-26 06:39:00,30.5,-99.9,-100.00,ENE,76,5.3,5.5,-999,22.75,,---,0.00,VWS V14.01,2013-02-26 11:39:00,
2013-02-26 06:40:00,30.8,-99.9,-100.00,ENE,68,6.0,6.1,-999,1.47,,---,0.00,VWS V14.01,2013-02-26 11:40:00,
2013-02-26 06:41:00,30.8,-99.9,-100.00,NE,49,4.7,8.7,-999,0.00,,---,0.00,VWS V14.01,2013-02-26 11:41:00,
2013-02-26 06:43:00,31.0,-99.9,-100.00,North,11,0.0,0.0,-999,1.06,,---,0.00,VWS V14.01,2013-02-26 11:43:00,
2013-02-26 06:45:00,30.8,-99.9,-100.00,North,11,0.0,0.0,-999,8.28,,---,0.00,VWS V14.01,2013-02-26 11:45:00,
2013-02-26 06:46:00,30.8,-99.9,-100.00,ENE,63,6.4,6.5,-999,0.00,,---,0.00,VWS V14.01,2013-02-26 11:46:00,
2013-02-26 06:48:00,31.0,-99.9,-100.00,ENE,62,0.0,7.0,-999,0.00,,---,0.00,VWS V14.01,2013-02-26 11:48:00,
2013-02-26 06:50:00,31.0,-99.9,-100.00,East,90,5.5,6.9,-999,0.00,,---,0.00,VWS V14.01,2013-02-26 11:50:00,
2013-02-26 06:51:00,31.0,-99.9,-100.00,ENE,66,4.3,5.1,-999,0.00,,---,0.00,VWS V14.01,2013-02-26 11:51:00,
2013-02-26 06:53:00,31.0,-99.9,-100.00,East,96,6.8,6.8,-999,0.00,,---,0.00,VWS V14.01,2013-02-26 11:53:00,
2013-02-26 06:55:00,31.0,-99.9,-100.00,East,83,6.5,6.5,-999,55.10,,---,0.00,VWS V14.01,2013-02-26 11:55:00,
2013-02-26 06:56:00,31.0,-99.9,-100.00,East,93,5.3,6.5,-999,1.40,,---,0.00,VWS V14.01,2013-02-26 11:56:00,
2013-02-26 06:58:00,31.0,-99.9,-100.00,ENE,62,0.0,0.0,-999,0.00,,---,0.00,VWS V14.01,2013-02-26 11:58:00,
2013-02-26 07:00:00,31.0,-99.9,-100.00,ENE,70,0.0,5.0,-999,0.00,,---,0.00,VWS V14.01,2013-02-26 12:00:00,
2013-02-26 07:01:00,31.3,-99.9,-100.00,ENE,70,0.0,0.0,-999,0.00,,---,0.00,VWS V14.01,2013-02-26 12:01:00,
2013-02-26 07:03:00,31.0,-99.9,-100.00,ENE,63,3.3,6.8,-999,0.00,,---,0.00,VWS V14.01,2013-02-26 12:03:00,
2013-02-26 07:05:00,31.0,-99.9,-100.00,ENE,69,5.4,5.4,-999,99.99,,---,0.00,VWS V14.01,2013-02-26 12:05:00,
2013-02-26 07:06:00,31.0,-99.9,-100.00,East,90,7.2,7.2,-999,99.99,,---,0.00,VWS V14.01,2013-02-26 12:06:00,
2013-02-26 07:07:00,31.0,-99.9,-100.00,ENE,62,0.0,4.3,-999,0.00,,---,0.00,VWS V14.01,2013-02-26 12:07:00,
2013-02-26 07:08:00,31.0,-99.9,-100.00,ENE,72,0.0,3.3,-999,0.00,,---,0.00,VWS V14.01,2013-02-26 12:08:00,
2013-02-26 07:10:00,31.3,-99.9,-100.00,East,101,0.0,4.6,-999,99.99,,---,0.00,VWS V14.01,2013-02-26 12:10:00,
2013-02-26 07:11:00,30.8,-99.9,-100.00,East,101,0.0,0.0,-999,99.99,,---,0.00,VWS V14.01,2013-02-26 12:11:00,
2013-02-26 07:12:00,31.0,-99.9,-100.00,East,101,0.0,0.0,-999,1.00,,---,0.00,VWS V14.01,2013-02-26 12:12:00,
2013-02-26 07:13:00,31.0,-99.9,-100.00,ENE,72,5.0,7.3,-999,0.00,,---,0.00,VWS V14.01,2013-02-26 12:13:00,
2013-02-26 07:15:00,31.3,-99.9,-100.00,NE,56,0.0,0.0,-999,1.40,,---,0.00,VWS V14.01,2013-02-26 12:15:00,
2013-02-26 07:16:00,31.3,-99.9,-100.00,NE,56,0.0,0.0,-999,0.00,,---,0.00,VWS V14.01,2013-02-26 12:16:00,
2013-02-26 07:17:00,31.0,-99.9,-100.00,NE,56,0.0,0.0,-999,0.00,,---,0.00,VWS V14.01,2013-02-26 12:17:00,
2013-02-26 07:18:00,31.0,-99.9,-100.00,ENE,63,4.5,5.3,-999,99.99,,---,0.00,VWS V14.01,2013-02-26 12:18:00,
2013-02-26 07:21:00,31.5,-99.9,-100.00,ENE,60,3.2,6.6,-999,0.00,,---,0.00,VWS V14.01,2013-02-26 12:21:00,
2013-02-26 07:22:00,31.0,-99.9,-100.00,ENE,76,0.0,5.2,-999,0.00,,---,0.00,VWS V14.01,2013-02-26 12:22:00,
2013-02-26 07:23:00,31.0,-99.9,-100.00,ENE,76,0.0,0.0,-999,0.00,,---,0.00,VWS V14.01,2013-02-26 12:23:00,
2013-02-26 07:26:00,31.5,-99.9,-100.00,ENE,76,0.0,0.0,-999,99.99,,---,0.00,VWS V14.01,2013-02-26 12:26:00,
2013-02-26 07:27:00,31.0,-99.9,-100.00,East,98,6.5,7.1,-999,2.17,,---,0.00,VWS V14.01,2013-02-26 12:27:00,
2013-02-26 07:29:00,31.3,-99.9,-100.00,East,87,5.0,5.6,-999,0.00,,---,0.00,VWS V14.01,2013-02-26 12:29:00,
2013-02-26 07:31:00,31.5,-99.9,-100.00,East,86,2.9,4.6,-999,99.99,,---,0.00,VWS V14.01,2013-02-26 12:31:00,
2013-02-26 07:32:00,31.3,-99.9,-100.00,East,86,0.0,0.0,-999,0.00,,---,0.00,VWS V14.01,2013-02-26 12:32:00,
2013-02-26 07:34:00,31.3,-99.9,-100.00,ENE,63,0.0,0.0,-999,2.53,,---,0.00,VWS V14.01,2013-02-26 12:34:00,
2013-02-26 07:36:00,31.3,-99.9,-100.00,ENE,59,4.7,5.1,-999,0.00,,---,0.00,VWS V14.01,2013-02-26 12:36:00,
2013-02-26 07:37:00,31.3,-99.9,-100.00,NE,35,0.0,4.2,-999,25.28,,---,0.00,VWS V14.01,2013-02-26 12:37:00,
2013-02-26 07:39:00,31.3,-99.9,-100.00,NE,51,0.0,0.0,-999,0.00,,---,0.00,VWS V14.01,2013-02-26 12:39:00,
2013-02-26 07:41:00,31.3,-99.9,-100.00,NE,51,0.0,0.0,-999,0.00,,---,0.00,VWS V14.01,2013-02-26 12:41:00,
2013-02-26 07:42:00,31.5,-99.9,-100.00,NE,45,0.0,3.2,-999,0.00,,---,0.00,VWS V14.01,2013-02-26 12:42:00,
2013-02-26 07:44:00,32.0,-99.9,-100.00,ENE,63,0.0,7.5,-999,99.99,,---,0.00,VWS V14.01,2013-02-26 12:44:00,
2013-02-26 07:46:00,31.5,-99.9,-100.00,East,83,0.0,4.5,-999,2.26,,---,0.00,VWS V14.01,2013-02-26 12:46:00,
2013-02-26 07:47:00,31.7,-99.9,-100.00,East,83,0.0,0.0,-999,1.40,,---,0.00,VWS V14.01,2013-02-26 12:47:00,
2013-02-26 07:50:00,32.0,-99.9,-100.00,NE,35,0.0,0.0,-999,99.99,,---,0.00,VWS V14.01,2013-02-26 12:50:00,
2013-02-26 07:51:00,32.3,-99.9,-100.00,NE,51,3.0,6.2,-999,9.09,,---,0.00,VWS V14.01,2013-02-26 12:51:00,
2013-02-26 07:52:00,32.3,-99.9,-100.00,NE,51,3.0,6.2,-999,9.09,,---,0.00,VWS V14.01,2013-02-26 12:52:00,
2013-02-26 07:55:00,32.0,-99.9,-100.00,East,101,4.9,5.7,-999,8.17,,---,0.00,VWS V14.01,2013-02-26 12:55:00,
2013-02-26 07:56:00,32.3,-99.9,-100.00,East,101,0.0,0.0,-999,0.00,,---,0.00,VWS V14.01,2013-02-26 12:56:00,
2013-02-26 07:57:00,32.3,-99.9,-100.00,East,101,3.4,3.4,-999,99.99,,---,0.00,VWS V14.01,2013-02-26 12:57:00,
2013-02-26 08:00:00,32.3,-99.9,-100.00,NE,56,5.0,5.5,-999,0.00,,---,0.00,VWS V14.01,2013-02-26 13:00:00,
2013-02-26 08:02:00,32.3,-99.9,-100.00,East,89,4.9,5.5,-999,0.00,,---,0.00,VWS V14.01,2013-02-26 13:02:00,
2013-02-26 08:03:00,32.3,-99.9,-100.00,NE,52,4.3,6.2,-999,71.71,,---,0.00,VWS V14.01,2013-02-26 13:03:00,
2013-02-26 08:05:00,32.8,-99.9,-100.00,ENE,58,7.3,7.6,-999,0.00,,---,0.00,VWS V14.01,2013-02-26 13:05:00,
2013-02-26 08:07:00,32.5,-99.9,-100.00,East,91,7.9,7.9,-999,2.55,,---,0.00,VWS V14.01,2013-02-26 13:07:00,
2013-02-26 08:08:00,32.3,-99.9,-100.00,East,86,4.8,7.9,-999,0.00,,---,0.00,VWS V14.01,2013-02-26 13:08:00,
2013-02-26 08:10:00,32.5,-99.9,-100.00,NE,49,6.1,6.1,-999,18.23,,---,0.00,VWS V14.01,2013-02-26 13:10:00,
2013-02-26 08:12:00,33.0,-99.9,-100.00,East,98,6.0,6.0,-999,0.00,,---,0.00,VWS V14.01,2013-02-26 13:12:00,
2013-02-26 08:13:00,33.0,-99.9,-100.00,ENE,76,7.3,7.3,-999,0.00,,---,0.00,VWS V14.01,2013-02-26 13:13:00,
2013-02-26 08:15:00,33.0,-99.9,-100.00,NE,46,0.0,6.0,-999,0.00,,---,0.00,VWS V14.01,2013-02-26 13:15:00,
2013-02-26 08:17:00,32.8,-99.9,-100.00,East,94,5.5,5.5,-999,0.00,,---,0.00,VWS V14.01,2013-02-26 13:17:00,
2013-02-26 08:19:00,33.0,-99.9,-100.00,ENE,59,3.4,4.6,-999,0.00,,---,0.00,VWS V14.01,2013-02-26 13:19:00,
2013-02-26 08:20:00,33.0,-99.9,-100.00,ENE,72,7.0,8.3,-999,0.00,,---,0.00,VWS V14.01,2013-02-26 13:20:00,
2013-02-26 08:22:00,33.3,-99.9,-100.00,East,90,8.0,8.0,-999,4.12,,---,0.00,VWS V14.01,2013-02-26 13:22:00,
2013-02-26 08:24:00,33.3,-99.9,-100.00,ENE,70,0.0,6.6,-999,0.00,,---,0.00,VWS V14.01,2013-02-26 13:24:00,
2013-02-26 08:26:00,33.5,-99.9,-100.00,NE,45,6.3,6.3,-999,0.00,,---,0.00,VWS V14.01,2013-02-26 13:26:00,
2013-02-26 08:27:00,33.5,-99.9,-100.00,NE,53,7.1,7.1,-999,0.00,,---,0.00,VWS V14.01,2013-02-26 13:27:00,
2013-02-26 08:29:00,33.5,-99.9,-100.00,ENE,68,5.2,6.7,-999,28.67,,---,0.00,VWS V14.01,2013-02-26 13:29:00,
2013-02-26 08:31:00,33.5,-99.9,-100.00,NE,39,4.9,5.7,-999,0.00,,---,0.00,VWS V14.01,2013-02-26 13:31:00,
2013-02-26 08:32:00,33.5,-99.9,-100.00,NE,56,4.9,5.3,-999,99.99,,---,0.00,VWS V14.01,2013-02-26 13:32:00,
2013-02-26 08:33:00,33.5,-99.9,-100.00,ENE,75,5.2,5.3,-999,99.99,,---,0.00,VWS V14.01,2013-02-26 13:33:00,
2013-02-26 08:34:00,34.0,-99.9,-100.00,ENE,60,8.0,8.0,-999,0.00,,---,0.00,VWS V14.01,2013-02-26 13:34:00,
2013-02-26 08:36:00,34.0,-99.9,-100.00,East,86,6.2,7.3,-999,0.00,,---,0.00,VWS V14.01,2013-02-26 13:36:00,
2013-02-26 08:37:00,33.8,-99.9,-100.00,East,89,7.3,7.6,-999,0.00,,---,0.00,VWS V14.01,2013-02-26 13:37:00,
2013-02-26 08:38:00,34.0,-99.9,-100.00,ENE,63,5.7,7.3,-999,2.40,,---,0.00,VWS V14.01,2013-02-26 13:38:00,
2013-02-26 08:39:00,34.0,-99.9,-100.00,East,83,5.7,7.3,-999,99.99,,---,0.00,VWS V14.01,2013-02-26 13:39:00,
2013-02-26 08:42:00,34.0,-99.9,-100.00,North,8,5.3,5.8,-999,99.99,,---,0.00,VWS V14.01,2013-02-26 13:42:00,
2013-02-26 08:43:00,34.6,-99.9,-100.00,ENE,68,6.5,6.5,-999,0.00,,---,0.00,VWS V14.01,2013-02-26 13:43:00,
2013-02-26 08:44:00,34.3,-99.9,-100.00,NE,45,7.8,8.4,-999,0.00,,---,0.00,VWS V14.01,2013-02-26 13:44:00,
2013-02-26 08:47:00,34.8,-99.9,-100.00,ENE,66,4.7,4.7,-999,64.66,,---,0.00,VWS V14.01,2013-02-26 13:47:00,
2013-02-26 08:48:00,34.8,-99.9,-100.00,NNE,18,0.0,0.0,-999,4.43,,---,0.00,VWS V14.01,2013-02-26 13:48:00,
2013-02-26 08:49:00,35.3,-99.9,-100.00,NNE,18,0.0,0.0,-999,86.76,,---,0.00,VWS V14.01,2013-02-26 13:49:00,
2013-02-26 08:52:00,34.8,-99.9,-100.00,ENE,69,5.5,8.1,-999,79.04,,---,0.00,VWS V14.01,2013-02-26 13:52:00,
2013-02-26 08:53:00,35.0,-99.9,-100.00,ESE,110,4.5,6.3,-999,1.00,,---,0.00,VWS V14.01,2013-02-26 13:53:00,
2013-02-26 08:54:00,35.5,-99.9,-100.00,NE,34,0.0,4.5,-999,99.99,,---,0.00,VWS V14.01,2013-02-26 13:54:00,
2013-02-26 08:57:00,35.5,-99.9,-100.00,NNE,21,3.2,5.1,-999,12.48,,---,0.00,VWS V14.01,2013-02-26 13:57:00,
2013-02-26 08:58:00,35.5,-99.9,-100.00,NNE,21,0.0,3.2,-999,56.03,,---,0.00,VWS V14.01,2013-02-26 13:58:00,
2013-02-26 08:59:00,36.3,-99.9,-100.00,NE,53,3.4,3.4,-999,87.60,,---,0.00,VWS V14.01,2013-02-26 13:59:00,
2013-02-26 09:02:00,37.0,-99.9,-100.00,NE,56,0.0,0.0,-999,0.00,,---,0.00,VWS V14.01,2013-02-26 14:02:00,
2013-02-26 09:03:00,36.5,-99.9,-100.00,NE,56,0.0,0.0,-999,0.00,,---,0.00,VWS V14.01,2013-02-26 14:03:00,
2013-02-26 09:04:00,36.0,-99.9,-100.00,ENE,62,1.4,4.8,-999,2.70,,---,0.00,VWS V14.01,2013-02-26 14:04:00,
2013-02-26 09:08:00,36.3,-99.9,-100.00,NE,51,0.0,0.0,-999,99.99,,---,0.00,VWS V14.01,2013-02-26 14:08:00,
2013-02-26 09:09:00,36.3,-99.9,-100.00,ENE,70,6.3,7.5,-999,2.55,,---,0.00,VWS V14.01,2013-02-26 14:09:00,
2013-02-26 09:13:00,36.0,-99.9,-100.00,NE,42,7.5,8.8,-999,0.00,,---,0.00,VWS V14.01,2013-02-26 14:13:00,
2013-02-26 09:14:00,36.3,-99.9,-100.00,NE,38,4.7,7.1,-999,58.56,,---,0.00,VWS V14.01,2013-02-26 14:14:00,
2013-02-26 09:18:00,36.3,-99.9,-100.00,East,96,8.0,9.8,-999,0.00,,---,0.00,VWS V14.01,2013-02-26 14:18:00,
2013-02-26 09:19:00,36.3,-99.9,-100.00,East,98,5.4,9.0,-999,0.00,,---,0.00,VWS V14.01,2013-02-26 14:19:00,
2013-02-26 09:23:00,36.3,-99.9,-100.00,NE,49,10.6,10.6,-999,0.00,,---,0.00,VWS V14.01,2013-02-26 14:23:00,
2013-02-26 09:24:00,36.3,-99.9,-100.00,SE,145,4.6,10.4,-999,0.00,,---,0.00,VWS V14.01,2013-02-26 14:24:00,
2013-02-26 09:28:00,36.5,-99.9,-100.00,ENE,66,3.5,8.4,-999,0.00,,---,0.00,VWS V14.01,2013-02-26 14:28:00,
2013-02-26 09:29:00,37.0,-99.9,-100.00,ESE,104,0.0,8.5,-999,0.00,,---,0.00,VWS V14.01,2013-02-26 14:29:00,
2013-02-26 09:33:00,37.0,-99.9,-100.00,East,80,8.1,8.1,-999,0.00,,---,0.00,VWS V14.01,2013-02-26 14:33:00,
2013-02-26 09:34:00,36.6,-99.9,-100.00,NE,37,5.7,8.0,-999,0.00,,---,0.00,VWS V14.01,2013-02-26 14:34:00,
2013-02-26 09:38:00,37.0,-99.9,-100.00,ENE,68,5.6,9.6,-999,2.33,,---,0.00,VWS V14.01,2013-02-26 14:38:00,
2013-02-26 09:39:00,37.0,-99.9,-100.00,East,84,8.0,9.6,-999,6.37,,---,0.00,VWS V14.01,2013-02-26 14:39:00,
2013-02-26 09:40:00,36.8,-99.9,-100.00,East,80,4.7,5.1,-999,0.00,,---,0.00,VWS V14.01,2013-02-26 14:40:00,
2013-02-26 09:43:00,36.8,-99.9,-100.00,SE,141,7.3,8.3,-999,81.80,,---,0.00,VWS V14.01,2013-02-26 14:43:00,
2013-02-26 09:44:00,36.6,-99.9,-100.00,ENE,77,4.7,5.6,-999,0.00,,---,0.00,VWS V14.01,2013-02-26 14:44:00,
2013-02-26 09:45:00,37.3,-99.9,-100.00,ENE,75,6.6,6.6,-999,0.00,,---,0.00,VWS V14.01,2013-02-26 14:45:00,
2013-02-26 09:48:00,36.7,-99.9,-100.00,SSE,149,4.7,9.5,-999,0.00,,---,0.00,VWS V14.01,2013-02-26 14:48:00,
2013-02-26 09:49:00,36.7,-99.9,-100.00,East,101,7.8,13.4,-999,0.00,,---,0.00,VWS V14.01,2013-02-26 14:49:00,
2013-02-26 09:50:00,37.0,-99.9,-100.00,East,87,6.5,6.9,-999,0.00,,---,0.00,VWS V14.01,2013-02-26 14:50:00,
2013-02-26 09:53:00,36.8,-99.9,-100.00,ENE,68,6.9,8.5,-999,57.56,,---,0.00,VWS V14.01,2013-02-26 14:53:00,
2013-02-26 09:54:00,37.0,-99.9,-100.00,East,84,7.5,7.7,-999,0.00,,---,0.00,VWS V14.01,2013-02-26 14:54:00,
2013-02-26 09:55:00,37.0,-99.9,-100.00,East,83,10.1,10.1,-999,0.00,,---,0.00,VWS V14.01,2013-02-26 14:55:00,
2013-02-26 09:58:00,37.0,-99.9,-100.00,East,84,5.6,6.8,-999,0.00,,---,0.00,VWS V14.01,2013-02-26 14:58:00,
2013-02-26 09:59:00,37.0,-99.9,-100.00,East,98,3.3,6.8,-999,0.00,,---,0.00,VWS V14.01,2013-02-26 14:59:00,
2013-02-26 10:00:00,37.0,-99.9,-100.00,NE,53,0.0,10.0,-999,0.00,,---,0.00,VWS V14.01,2013-02-26 15:00:00,
2013-02-26 10:04:00,37.0,-99.9,-100.00,ENE,73,5.8,5.8,-999,0.00,,---,0.00,VWS V14.01,2013-02-26 15:04:00,
2013-02-26 10:05:00,36.8,-99.9,-100.00,East,84,8.3,8.5,-999,0.00,,---,0.00,VWS V14.01,2013-02-26 15:05:00,
2013-02-26 10:09:00,36.3,-99.9,-100.00,ENE,76,6.7,9.0,-999,0.00,,---,0.00,VWS V14.01,2013-02-26 15:09:00,
2013-02-26 10:10:00,36.8,-99.9,-100.00,East,94,0.0,8.3,-999,0.91,,---,0.00,VWS V14.01,2013-02-26 15:10:00,
2013-02-26 10:14:00,36.3,-99.9,-100.00,East,100,0.0,1.9,-999,0.35,,---,0.00,VWS V14.01,2013-02-26 15:14:00,
2013-02-26 10:15:00,37.0,-99.9,-100.00,NE,35,0.0,3.4,-999,0.00,,---,0.00,VWS V14.01,2013-02-26 15:15:00,
2013-02-26 10:19:00,36.8,-99.9,-100.00,ESE,108,4.8,5.5,-999,2.76,,---,0.00,VWS V14.01,2013-02-26 15:19:00,
2013-02-26 10:20:00,37.0,-99.9,-100.00,NE,55,6.0,6.7,-999,0.00,,---,0.00,VWS V14.01,2013-02-26 15:20:00,
2013-02-26 10:24:00,37.0,-99.9,-100.00,NE,55,6.1,8.5,-999,1.60,,---,0.00,VWS V14.01,2013-02-26 15:24:00,
2013-02-26 10:25:00,36.3,-99.9,-100.00,ENE,77,4.8,5.5,-999,79.97,,---,0.00,VWS V14.01,2013-02-26 15:25:00,
2013-02-26 10:29:00,37.3,-99.9,-100.00,ENE,75,6.9,6.9,-999,34.75,,---,0.00,VWS V14.01,2013-02-26 15:29:00,
2013-02-26 10:30:00,36.8,-99.9,-100.00,ENE,72,0.0,6.4,-999,6.36,,---,0.00,VWS V14.01,2013-02-26 15:30:00,
2013-02-26 10:31:00,37.0,-99.9,-100.00,ENE,72,0.0,0.0,-999,6.36,,---,0.00,VWS V14.01,2013-02-26 15:31:00,
2013-02-26 10:34:00,37.0,-99.9,-100.00,ENE,73,6.1,8.0,-999,6.40,,---,0.00,VWS V14.01,2013-02-26 15:34:00,
2013-02-26 10:35:00,37.0,-99.9,-100.00,East,83,8.4,8.4,-999,8.28,,---,0.00,VWS V14.01,2013-02-26 15:35:00,
2013-02-26 10:36:00,37.0,-99.9,-100.00,East,98,5.8,8.0,-999,99.99,,---,0.00,VWS V14.01,2013-02-26 15:36:00,
2013-02-26 10:39:00,37.3,-99.9,-100.00,East,79,8.5,8.5,-999,0.00,,---,0.00,VWS V14.01,2013-02-26 15:39:00,
2013-02-26 10:40:00,37.8,-99.9,-100.00,ENE,66,6.2,7.0,-999,1.40,,---,0.00,VWS V14.01,2013-02-26 15:40:00,
2013-02-26 10:41:00,37.8,-99.9,-100.00,East,98,0.0,5.2,-999,0.00,,---,0.00,VWS V14.01,2013-02-26 15:41:00,
2013-02-26 10:44:00,37.5,-99.9,-100.00,ENE,66,4.3,5.2,-999,0.00,,---,0.00,VWS V14.01,2013-02-26 15:44:00,
2013-02-26 10:45:00,38.0,-99.9,-100.00,ENE,68,4.2,5.2,-999,0.00,,---,0.00,VWS V14.01,2013-02-26 15:45:00,
2013-02-26 10:46:00,37.4,-99.9,-100.00,NE,34,5.3,8.7,-999,0.00,,---,0.00,VWS V14.01,2013-02-26 15:46:00,
2013-02-26 10:49:00,38.1,-99.9,-100.00,ENE,75,6.8,7.5,-999,1.01,,---,0.00,VWS V14.01,2013-02-26 15:49:00,
2013-02-26 10:50:00,38.3,-99.9,-100.00,East,89,7.9,11.6,-999,0.00,,---,0.00,VWS V14.01,2013-02-26 15:50:00,
2013-02-26 10:51:00,38.2,-99.9,-100.00,East,96,6.5,7.9,-999,57.04,,---,0.00,VWS V14.01,2013-02-26 15:51:00,
2013-02-26 10:55:00,38.3,-99.9,-100.00,NE,37,8.6,8.6,-999,99.99,,---,0.00,VWS V14.01,2013-02-26 15:55:00,
2013-02-26 10:56:00,38.1,-99.9,-100.00,NE,55,5.7,8.6,-999,1.00,,---,0.00,VWS V14.01,2013-02-26 15:56:00,
2013-02-26 11:00:00,38.1,-99.9,-100.00,East,100,5.8,5.8,-999,0.00,,---,0.00,VWS V14.01,2013-02-26 16:00:00,
2013-02-26 11:01:00,38.5,-99.9,-100.00,East,83,8.9,9.9,-999,4.63,,---,0.00,VWS V14.01,2013-02-26 16:01:00,
2013-02-26 11:05:00,38.3,-99.9,-100.00,ENE,76,6.9,7.8,-999,0.00,,---,0.00,VWS V14.01,2013-02-26 16:05:00,
2013-02-26 11:06:00,38.1,-99.9,-100.00,East,89,6.0,6.0,-999,0.00,,---,0.00,VWS V14.01,2013-02-26 16:06:00,
2013-02-26 11:10:00,38.1,-99.9,-100.00,East,89,0.0,6.1,-999,0.00,,---,0.00,VWS V14.01,2013-02-26 16:10:00,
2013-02-26 11:11:00,38.5,-99.9,-100.00,ENE,77,5.0,7.6,-999,0.00,,---,0.00,VWS V14.01,2013-02-26 16:11:00,
2013-02-26 11:15:00,38.8,-99.9,-100.00,East,79,2.9,2.9,-999,99.99,,---,0.00,VWS V14.01,2013-02-26 16:15:00,
2013-02-26 11:16:00,38.8,-99.9,-100.00,East,79,0.0,0.0,-999,99.99,,---,0.00,VWS V14.01,2013-02-26 16:16:00,
2013-02-26 11:20:00,38.5,-99.9,-100.00,ESE,114,0.0,5.7,-999,99.99,,---,0.00,VWS V14.01,2013-02-26 16:20:00,
2013-02-26 11:21:00,38.8,-99.9,-100.00,East,100,6.3,6.3,-999,34.75,,---,0.00,VWS V14.01,2013-02-26 16:21:00,
2013-02-26 11:25:00,38.8,-99.9,-100.00,East,90,0.0,0.0,-999,2.06,,---,0.00,VWS V14.01,2013-02-26 16:25:00,
2013-02-26 11:26:00,39.0,-99.9,-100.00,ENE,66,0.0,0.0,-999,0.00,,---,0.00,VWS V14.01,2013-02-26 16:26:00,
2013-02-26 11:30:00,38.8,-99.9,-100.00,SE,124,8.7,10.7,-999,99.99,,---,0.00,VWS V14.01,2013-02-26 16:30:00,
2013-02-26 11:31:00,38.7,-99.9,-100.00,SE,132,6.3,8.7,-999,99.99,,---,0.00,VWS V14.01,2013-02-26 16:31:00,
2013-02-26 11:35:00,38.5,-99.9,-100.00,East,90,0.0,0.0,-999,0.00,,---,0.00,VWS V14.01,2013-02-26 16:35:00,
2013-02-26 11:36:00,38.9,-99.9,-100.00,East,82,3.3,3.3,-999,0.00,,---,0.00,VWS V14.01,2013-02-26 16:36:00,
2013-02-26 11:40:00,38.9,-99.9,-100.00,ENE,59,0.0,0.0,-999,99.99,,---,0.00,VWS V14.01,2013-02-26 16:40:00,
2013-02-26 11:41:00,38.8,-99.9,-100.00,ENE,59,0.0,0.0,-999,99.99,,---,0.00,VWS V14.01,2013-02-26 16:41:00,
2013-02-26 11:45:00,39.1,-99.9,-100.00,SE,143,5.7,9.3,-999,10.10,,---,0.00,VWS V14.01,2013-02-26 16:45:00,
2013-02-26 11:46:00,39.0,-99.9,-100.00,SE,139,0.0,5.7,-999,99.99,,---,0.00,VWS V14.01,2013-02-26 16:46:00,
2013-02-26 11:50:00,38.8,-99.9,-100.00,NE,48,4.8,6.9,-999,99.23,,---,0.00,VWS V14.01,2013-02-26 16:50:00,
2013-02-26 11:51:00,38.8,-99.9,-100.00,NNE,25,4.2,5.6,-999,99.99,,---,0.00,VWS V14.01,2013-02-26 16:51:00,
2013-02-26 11:56:00,39.0,-99.9,-100.00,ENE,59,0.0,5.0,-999,0.87,,---,0.00,VWS V14.01,2013-02-26 16:56:00,
2013-02-26 11:57:00,38.7,-99.9,-100.00,East,90,5.7,6.5,-999,0.87,,---,0.00,VWS V14.01,2013-02-26 16:57:00,
2013-02-26 12:01:00,38.5,-99.9,-100.00,East,79,9.9,9.9,-999,0.00,,---,0.00,VWS V14.01,2013-02-26 17:01:00,
2013-02-26 12:02:00,38.7,-99.9,-100.00,ENE,70,0.0,4.5,-999,0.00,,---,0.00,VWS V14.01,2013-02-26 17:02:00,
2013-02-26 12:06:00,38.5,-99.9,-100.00,ENE,72,0.0,0.0,-999,0.00,,---,0.00,VWS V14.01,2013-02-26 17:06:00,
2013-02-26 12:07:00,38.5,-99.9,-100.00,ENE,72,0.0,0.0,-999,0.00,,---,0.00,VWS V14.01,2013-02-26 17:07:00,
2013-02-26 12:11:00,39.0,-99.9,-100.00,ENE,68,0.0,0.0,-999,0.00,,---,0.00,VWS V14.01,2013-02-26 17:11:00,
2013-02-26 12:12:00,39.0,-99.9,-100.00,ENE,68,0.0,0.0,-999,7.28,,---,0.00,VWS V14.01,2013-02-26 17:12:00,
2013-02-26 12:17:00,38.5,-99.9,-100.00,ENE,58,3.4,4.7,-999,99.99,,---,0.00,VWS V14.01,2013-02-26 17:17:00,
2013-02-26 12:22:00,39.2,-99.9,-100.00,NE,51,4.9,10.4,-999,0.00,,---,0.00,VWS V14.01,2013-02-26 17:22:00,
2013-02-26 12:23:00,39.0,-99.9,-100.00,East,80,6.5,7.3,-999,30.92,,---,0.00,VWS V14.01,2013-02-26 17:23:00,
2013-02-26 12:27:00,38.7,-99.9,-100.00,ENE,60,3.3,3.5,-999,0.00,,---,0.00,VWS V14.01,2013-02-26 17:27:00,
2013-02-26 12:28:00,38.5,-99.9,-100.00,ENE,58,5.8,7.3,-999,0.84,,---,0.00,VWS V14.01,2013-02-26 17:28:00,
2013-02-26 12:32:00,39.0,-99.9,-100.00,ESE,108,5.8,6.7,-999,78.26,,---,0.00,VWS V14.01,2013-02-26 17:32:00,
2013-02-26 12:33:00,38.7,-99.9,-100.00,ESE,120,8.3,8.7,-999,0.00,,---,0.00,VWS V14.01,2013-02-26 17:33:00,
2013-02-26 12:37:00,39.2,-99.9,-100.00,East,83,8.1,8.1,-999,0.00,,---,0.00,VWS V14.01,2013-02-26 17:37:00,
2013-02-26 12:38:00,39.5,-99.9,-100.00,ENE,66,7.1,7.1,-999,0.00,,---,0.00,VWS V14.01,2013-02-26 17:38:00,
2013-02-26 12:42:00,39.2,-99.9,-100.00,ESE,107,6.7,10.7,-999,0.00,,---,0.00,VWS V14.01,2013-02-26 17:42:00,
2013-02-26 12:43:00,39.2,-99.9,-100.00,ENE,58,5.4,6.8,-999,0.00,,---,0.00,VWS V14.01,2013-02-26 17:43:00,
2013-02-26 12:47:00,39.2,-99.9,-100.00,ENE,73,5.1,6.1,-999,0.00,,---,0.00,VWS V14.01,2013-02-26 17:47:00,
2013-02-26 12:48:00,39.0,-99.9,-100.00,NE,42,8.8,8.8,-999,99.99,,---,0.00,VWS V14.01,2013-02-26 17:48:00,
2013-02-26 12:52:00,39.0,-99.9,-100.00,ESE,104,0.0,6.0,-999,0.00,,---,0.00,VWS V14.01,2013-02-26 17:52:00,
2013-02-26 12:53:00,39.2,-99.9,-100.00,SSE,152,7.0,7.0,-999,4.03,,---,0.00,VWS V14.01,2013-02-26 17:53:00,
2013-02-26 12:57:00,38.7,-99.9,-100.00,NE,45,0.0,6.1,-999,0.00,,---,0.00,VWS V14.01,2013-02-26 17:57:00,
2013-02-26 12:58:00,39.0,-99.9,-100.00,NE,41,5.3,10.2,-999,56.69,,---,0.00,VWS V14.01,2013-02-26 17:58:00,
2013-02-26 13:02:00,38.5,-99.9,-100.00,ENE,65,4.3,7.0,-999,0.91,,---,0.00,VWS V14.01,2013-02-26 18:02:00,
2013-02-26 13:03:00,38.5,-99.9,-100.00,ENE,70,9.6,12.7,-999,0.00,,---,0.00,VWS V14.01,2013-02-26 18:03:00,
2013-02-26 13:04:00,38.5,-99.9,-100.00,East,94,12.6,14.2,-999,0.00,,---,0.00,VWS V14.01,2013-02-26 18:04:00,
2013-02-26 13:07:00,39.0,-99.9,-100.00,SE,134,0.0,0.0,-999,7.44,,---,0.00,VWS V14.01,2013-02-26 18:07:00,
2013-02-26 13:08:00,38.5,-99.9,-100.00,SE,134,0.0,0.0,-999,7.44,,---,0.00,VWS V14.01,2013-02-26 18:08:00,
2013-02-26 13:09:00,38.7,-99.9,-100.00,SE,134,0.0,0.0,-999,0.00,,---,0.00,VWS V14.01,2013-02-26 18:09:00,
2013-02-26 13:12:00,38.5,-99.9,-100.00,East,90,6.5,8.6,-999,0.00,,---,0.00,VWS V14.01,2013-02-26 18:12:00,
2013-02-26 13:13:00,38.5,-99.9,-100.00,East,90,6.5,8.6,-999,0.00,,---,0.00,VWS V14.01,2013-02-26 18:13:00,
2013-02-26 13:14:00,38.2,-99.9,-100.00,East,89,7.1,7.1,-999,5.75,,---,0.00,VWS V14.01,2013-02-26 18:14:00,
2013-02-26 13:18:00,38.2,-99.9,-100.00,East,98,9.2,9.2,-999,0.00,,---,0.01,VWS V14.01,2013-02-26 18:18:00,
2013-02-26 13:19:00,37.8,-99.9,-100.00,East,100,7.0,8.3,-999,0.00,,---,0.01,VWS V14.01,2013-02-26 18:19:00,
2013-02-26 13:23:00,37.5,-99.9,-100.00,East,98,7.8,7.8,-999,0.00,,---,0.01,VWS V14.01,2013-02-26 18:23:00,
2013-02-26 13:24:00,37.3,-99.9,-100.00,East,101,8.1,8.1,-999,21.28,,---,0.01,VWS V14.01,2013-02-26 18:24:00,
2013-02-26 13:28:00,37.3,-99.9,-100.00,ENE,76,4.3,4.7,-999,99.99,,---,0.01,VWS V14.01,2013-02-26 18:28:00,
2013-02-26 13:29:00,37.0,-99.9,-100.00,ESE,122,8.4,8.4,-999,99.99,,---,0.01,VWS V14.01,2013-02-26 18:29:00,
2013-02-26 13:33:00,37.3,-99.9,-100.00,East,93,14.3,14.3,-999,0.00,,---,0.01,VWS V14.01,2013-02-26 18:33:00,
2013-02-26 13:34:00,37.0,-99.9,-100.00,East,90,8.6,8.6,-999,41.04,,---,0.01,VWS V14.01,2013-02-26 18:34:00,
2013-02-26 13:38:00,37.0,-99.9,-100.00,East,91,6.5,8.0,-999,0.00,,---,0.02,VWS V14.01,2013-02-26 18:38:00,
2013-02-26 13:39:00,37.0,-99.9,-100.00,NE,51,7.3,8.0,-999,0.00,,---,0.02,VWS V14.01,2013-02-26 18:39:00,
2013-02-26 13:43:00,37.0,-99.9,-100.00,NE,45,6.6,8.5,-999,57.56,,---,0.02,VWS V14.01,2013-02-26 18:43:00,
2013-02-26 13:44:00,37.0,-99.9,-100.00,East,86,9.1,9.1,-999,0.00,,---,0.02,VWS V14.01,2013-02-26 18:44:00,
2013-02-26 13:48:00,36.8,-99.9,-100.00,East,96,10.0,10.1,-999,0.56,,---,0.02,VWS V14.01,2013-02-26 18:48:00,
2013-02-26 13:49:00,36.8,-99.9,-100.00,ENE,70,9.3,10.0,-999,0.00,,---,0.02,VWS V14.01,2013-02-26 18:49:00,
2013-02-26 13:53:00,36.5,-99.9,-100.00,ESE,105,8.6,10.7,-999,99.99,,---,0.02,VWS V14.01,2013-02-26 18:53:00,
2013-02-26 13:54:00,36.5,-99.9,-100.00,East,84,6.3,8.9,-999,18.21,,---,0.02,VWS V14.01,2013-02-26 18:54:00,
2013-02-26 13:58:00,37.0,-99.9,-100.00,East,90,7.4,7.4,-999,7.56,,---,0.02,VWS V14.01,2013-02-26 18:58:00,
2013-02-26 13:59:00,37.0,-99.9,-100.00,East,90,7.4,7.4,-999,7.56,,---,0.02,VWS V14.01,2013-02-26 18:59:00,
2013-02-26 14:03:00,36.3,-99.9,-100.00,ENE,76,7.7,9.7,-999,0.00,,---,0.03,VWS V14.01,2013-02-26 19:03:00,
2013-02-26 14:04:00,36.5,-99.9,-100.00,ENE,66,8.5,9.1,-999,1.00,,---,0.03,VWS V14.01,2013-02-26 19:04:00,
2013-02-26 14:09:00,36.3,-99.9,-100.00,ENE,75,7.7,7.7,-999,57.56,,---,0.03,VWS V14.01,2013-02-26 19:09:00,
2013-02-26 14:14:00,36.0,-99.9,-100.00,East,89,8.2,8.6,-999,0.00,,---,0.03,VWS V14.01,2013-02-26 19:14:00,
2013-02-26 14:19:00,35.7,-99.9,-100.00,East,100,8.3,8.3,-999,4.91,,---,0.04,VWS V14.01,2013-02-26 19:19:00,
2013-02-26 14:24:00,35.5,-99.9,-100.00,NE,35,4.8,10.3,-999,0.00,,---,0.04,VWS V14.01,2013-02-26 19:24:00,
2013-02-26 14:29:00,35.5,-99.9,-100.00,ENE,66,6.6,7.7,-999,0.00,,---,0.05,VWS V14.01,2013-02-26 19:29:00,
2013-02-26 14:30:00,35.7,-99.9,-100.00,East,83,8.6,8.6,-999,9.23,,---,0.05,VWS V14.01,2013-02-26 19:30:00,
2013-02-26 14:34:00,35.5,-99.9,-100.00,East,98,10.9,10.9,-999,0.00,,---,0.05,VWS V14.01,2013-02-26 19:34:00,
2013-02-26 14:35:00,35.7,-99.9,-100.00,ENE,66,12.1,12.1,-999,0.87,,---,0.05,VWS V14.01,2013-02-26 19:35:00,
2013-02-26 14:39:00,35.5,-99.9,-100.00,South,180,6.3,8.8,-999,1.40,,---,0.06,VWS V14.01,2013-02-26 19:39:00,
2013-02-26 14:40:00,35.5,-99.9,-100.00,East,100,7.7,9.3,-999,0.00,,---,0.06,VWS V14.01,2013-02-26 19:40:00,
2013-02-26 14:44:00,35.5,-99.9,-100.00,ENE,77,10.6,13.5,-999,7.44,,---,0.06,VWS V14.01,2013-02-26 19:44:00,
2013-02-26 14:45:00,35.5,-99.9,-100.00,East,89,9.6,9.6,-999,7.83,,---,0.06,VWS V14.01,2013-02-26 19:45:00,
2013-02-26 14:49:00,35.5,-99.9,-100.00,East,82,10.4,11.0,-999,0.91,,---,0.06,VWS V14.01,2013-02-26 19:49:00,
2013-02-26 14:50:00,35.5,-99.9,-100.00,ENE,62,7.4,10.4,-999,0.00,,---,0.06,VWS V14.01,2013-02-26 19:50:00,
2013-02-26 14:54:00,35.5,-99.9,-100.00,East,97,6.2,9.4,-999,0.00,,---,0.07,VWS V14.01,2013-02-26 19:54:00,
2013-02-26 14:55:00,35.5,-99.9,-100.00,East,97,6.2,9.4,-999,0.00,,---,0.07,VWS V14.01,2013-02-26 19:55:00,
2013-02-26 14:59:00,35.0,-99.9,-100.00,East,80,11.7,16.8,-999,0.00,,---,0.07,VWS V14.01,2013-02-26 19:59:00,
2013-02-26 15:00:00,34.8,-99.9,-100.00,ESE,111,6.5,16.8,-999,0.00,,---,0.07,VWS V14.01,2013-02-26 20:00:00,
2013-02-26 15:04:00,34.6,-99.9,-100.00,East,79,9.1,9.1,-999,0.00,,---,0.08,VWS V14.01,2013-02-26 20:04:00,
2013-02-26 15:05:00,34.8,-99.9,-100.00,ENE,70,8.0,9.1,-999,0.00,,---,0.08,VWS V14.01,2013-02-26 20:05:00,
2013-02-26 15:10:00,34.8,-99.9,-100.00,East,79,9.7,9.7,-999,0.00,,---,0.09,VWS V14.01,2013-02-26 20:10:00,
2013-02-26 15:15:00,34.0,-99.9,-100.00,East,79,10.9,13.2,-999,40.50,,---,0.10,VWS V14.01,2013-02-26 20:15:00,
2013-02-26 15:20:00,34.3,-99.9,-100.00,ESE,105,9.2,9.5,-999,8.28,,---,0.11,VWS V14.01,2013-02-26 20:20:00,
2013-02-26 15:21:00,34.3,-99.9,-100.00,ENE,66,7.2,10.7,-999,99.99,,---,0.11,VWS V14.01,2013-02-26 20:21:00,
2013-02-26 15:25:00,34.3,-99.9,-100.00,NE,42,9.8,11.1,-999,1.46,,---,0.12,VWS V14.01,2013-02-26 20:25:00,
2013-02-26 15:26:00,33.8,-99.9,-100.00,ENE,63,12.4,14.6,-999,0.00,,---,0.12,VWS V14.01,2013-02-26 20:26:00,
2013-02-26 15:30:00,34.0,-99.9,-100.00,East,86,13.2,15.2,-999,49.33,,---,0.12,VWS V14.01,2013-02-26 20:30:00,
2013-02-26 15:31:00,34.0,-99.9,-100.00,ENE,73,9.8,13.0,-999,0.00,,---,0.13,VWS V14.01,2013-02-26 20:31:00,
2013-02-26 15:35:00,34.0,-99.9,-100.00,ENE,77,14.2,14.2,-999,0.00,,---,0.13,VWS V14.01,2013-02-26 20:35:00,
2013-02-26 15:36:00,33.8,-99.9,-100.00,East,90,7.7,12.4,-999,56.69,,---,0.13,VWS V14.01,2013-02-26 20:36:00,
2013-02-26 15:40:00,33.8,-99.9,-100.00,ENE,68,9.1,15.6,-999,99.99,,---,0.13,VWS V14.01,2013-02-26 20:40:00,
2013-02-26 15:41:00,33.8,-99.9,-100.00,NE,56,10.7,12.9,-999,0.00,,---,0.14,VWS V14.01,2013-02-26 20:41:00,
2013-02-26 15:45:00,34.0,-99.9,-100.00,East,97,13.1,13.1,-999,99.99,,---,0.14,VWS V14.01,2013-02-26 20:45:00,
2013-02-26 15:46:00,33.5,-99.9,-100.00,East,98,7.1,10.8,-999,0.00,,---,0.14,VWS V14.01,2013-02-26 20:46:00,
2013-02-26 15:50:00,33.5,-99.9,-100.00,East,90,8.5,13.4,-999,99.99,,---,0.14,VWS V14.01,2013-02-26 20:50:00,
2013-02-26 15:51:00,34.0,-99.9,-100.00,NE,53,6.2,13.4,-999,99.99,,---,0.14,VWS V14.01,2013-02-26 20:51:00,
2013-02-26 15:55:00,33.8,-99.9,-100.00,East,84,10.9,12.7,-999,0.00,,---,0.15,VWS V14.01,2013-02-26 20:55:00,
2013-02-26 15:56:00,34.0,-99.9,-100.00,ENE,76,10.5,10.5,-999,0.00,,---,0.15,VWS V14.01,2013-02-26 20:56:00,
2013-02-26 15:58:00,33.8,-99.9,-100.00,NE,52,4.7,8.1,-999,84.83,,---,0.15,VWS V14.01,2013-02-26 20:58:00,
2013-02-26 16:00:00,33.8,-99.9,-100.00,ESE,114,7.5,14.0,-999,2.68,,---,0.16,VWS V14.01,2013-02-26 21:00:00,
2013-02-26 16:01:00,33.5,-99.9,-100.00,ENE,72,6.9,7.5,-999,0.00,,---,0.16,VWS V14.01,2013-02-26 21:01:00,
2013-02-26 16:03:00,33.8,-99.9,-100.00,SE,142,7.9,7.9,-999,99.99,,---,0.16,VWS V14.01,2013-02-26 21:03:00,
2013-02-26 16:05:00,33.8,-99.9,-100.00,East,96,0.0,0.0,-999,79.39,,---,0.17,VWS V14.01,2013-02-26 21:05:00,
2013-02-26 16:06:00,33.8,-99.9,-100.00,East,96,0.0,0.0,-999,79.39,,---,0.17,VWS V14.01,2013-02-26 21:06:00,
2013-02-26 16:08:00,33.8,-99.9,-100.00,ENE,75,11.3,11.3,-999,0.00,,---,0.18,VWS V14.01,2013-02-26 21:08:00,
2013-02-26 16:10:00,33.8,-99.9,-100.00,East,80,7.5,12.1,-999,10.21,,---,0.18,VWS V14.01,2013-02-26 21:10:00,
2013-02-26 16:11:00,33.5,-99.9,-100.00,East,84,13.5,13.5,-999,99.99,,---,0.18,VWS V14.01,2013-02-26 21:11:00,
2013-02-26 16:13:00,33.8,-99.9,-100.00,SE,142,9.4,11.4,-999,0.44,,---,0.19,VWS V14.01,2013-02-26 21:13:00,
2013-02-26 16:16:00,33.8,-99.9,-100.00,East,87,9.5,9.5,-999,0.00,,---,0.21,VWS V14.01,2013-02-26 21:16:00,
2013-02-26 16:18:00,34.0,-99.9,-100.00,NE,51,3.5,7.0,-999,0.03,,---,0.22,VWS V14.01,2013-02-26 21:18:00,
2013-02-26 16:21:00,33.8,-99.9,-100.00,ENE,73,10.3,11.2,-999,0.00,,---,0.24,VWS V14.01,2013-02-26 21:21:00,
2013-02-26 16:23:00,33.3,-99.9,-100.00,ENE,66,6.2,12.9,-999,2.53,,---,0.26,VWS V14.01,2013-02-26 21:23:00,
2013-02-26 16:26:00,33.8,-99.9,-100.00,East,80,7.6,9.4,-999,0.44,,---,0.27,VWS V14.01,2013-02-26 21:26:00,
2013-02-26 16:28:00,33.8,-99.9,-100.00,NE,37,13.1,13.1,-999,0.00,,---,0.28,VWS V14.01,2013-02-26 21:28:00,
2013-02-26 16:31:00,33.8,-99.9,-100.00,East,86,10.4,10.4,-999,0.00,,---,0.29,VWS V14.01,2013-02-26 21:31:00,
2013-02-26 16:33:00,33.8,-99.9,-100.00,ENE,58,7.4,10.0,-999,0.91,,---,0.30,VWS V14.01,2013-02-26 21:33:00,
2013-02-26 16:36:00,34.0,-99.9,-100.00,East,87,11.4,11.4,-999,1.40,,---,0.31,VWS V14.01,2013-02-26 21:36:00,
2013-02-26 16:38:00,34.0,-99.9,-100.00,ESE,120,5.5,11.4,-999,56.04,,---,0.32,VWS V14.01,2013-02-26 21:38:00,
2013-02-26 16:41:00,34.0,-99.9,-100.00,ENE,66,8.3,10.6,-999,0.00,,---,0.32,VWS V14.01,2013-02-26 21:41:00,
2013-02-26 16:43:00,34.0,-99.9,-100.00,SE,143,0.0,0.0,-999,99.99,,---,0.33,VWS V14.01,2013-02-26 21:43:00,
2013-02-26 16:46:00,34.3,-99.9,-100.00,ENE,77,9.5,9.5,-999,0.00,,---,0.34,VWS V14.01,2013-02-26 21:46:00,
2013-02-26 16:48:00,34.0,-99.9,-100.00,ENE,66,7.1,11.7,-999,0.00,,---,0.35,VWS V14.01,2013-02-26 21:48:00,
2013-02-26 16:51:00,34.0,-99.9,-100.00,East,83,7.8,8.3,-999,5.76,,---,0.37,VWS V14.01,2013-02-26 21:51:00,
2013-02-26 16:52:00,34.0,-99.9,-100.00,East,80,8.4,10.2,-999,57.44,,---,0.37,VWS V14.01,2013-02-26 21:52:00,
2013-02-26 16:53:00,34.0,-99.9,-100.00,East,84,8.0,8.0,-999,0.00,,---,0.38,VWS V14.01,2013-02-26 21:53:00,
2013-02-26 16:56:00,34.3,-99.9,-100.00,East,100,0.0,0.0,-999,0.00,,---,0.39,VWS V14.01,2013-02-26 21:56:00,
2013-02-26 16:57:00,33.8,-99.9,-100.00,SE,143,9.3,9.3,-999,99.99,,---,0.39,VWS V14.01,2013-02-26 21:57:00,
2013-02-26 16:58:00,34.0,-99.9,-100.00,East,89,9.0,9.0,-999,57.44,,---,0.40,VWS V14.01,2013-02-26 21:58:00,
2013-02-26 17:01:00,34.0,-99.9,-100.00,NE,41,2.9,8.5,-999,0.00,,---,0.40,VWS V14.01,2013-02-26 22:01:00,
2013-02-26 17:02:00,34.0,-99.9,-100.00,East,82,0.0,7.9,-999,0.00,,---,0.41,VWS V14.01,2013-02-26 22:02:00,
2013-02-26 17:04:00,34.0,-99.9,-100.00,NE,53,0.0,6.9,-999,5.76,,---,0.41,VWS V14.01,2013-02-26 22:04:00,
2013-02-26 17:06:00,34.3,-99.9,-100.00,ENE,66,0.0,6.5,-999,0.75,,---,0.42,VWS V14.01,2013-02-26 22:06:00,
2013-02-26 17:07:00,33.8,-99.9,-100.00,ENE,66,0.0,0.0,-999,0.00,,---,0.42,VWS V14.01,2013-02-26 22:07:00,
2013-02-26 17:09:00,34.0,-99.9,-100.00,ENE,70,5.3,5.9,-999,3.59,,---,0.42,VWS V14.01,2013-02-26 22:09:00,
2013-02-26 17:11:00,34.3,-99.9,-100.00,SE,136,0.0,0.0,-999,30.79,,---,0.43,VWS V14.01,2013-02-26 22:11:00,
2013-02-26 17:12:00,33.8,-99.9,-100.00,East,93,0.0,4.4,-999,10.18,,---,0.43,VWS V14.01,2013-02-26 22:12:00,
2013-02-26 17:14:00,34.0,-99.9,-100.00,East,94,0.0,9.3,-999,56.44,,---,0.44,VWS V14.01,2013-02-26 22:14:00,
2013-02-26 17:16:00,34.0,-99.9,-100.00,ENE,70,5.6,5.6,-999,99.99,,---,0.44,VWS V14.01,2013-02-26 22:16:00,
2013-02-26 17:17:00,34.0,-99.9,-100.00,East,84,0.0,5.6,-999,0.00,,---,0.44,VWS V14.01,2013-02-26 22:17:00,
2013-02-26 17:19:00,34.3,-99.9,-100.00,ENE,69,0.0,0.0,-999,0.00,,---,0.45,VWS V14.01,2013-02-26 22:19:00,
2013-02-26 17:21:00,33.8,-99.9,-100.00,SSE,155,6.7,9.1,-999,0.00,,---,0.46,VWS V14.01,2013-02-26 22:21:00,
2013-02-26 17:22:00,33.8,-99.9,-100.00,SSE,155,6.7,9.1,-999,0.00,,---,0.46,VWS V14.01,2013-02-26 22:22:00,
2013-02-26 17:24:00,34.0,-99.9,-100.00,SE,127,0.0,0.0,-999,9.47,,---,0.48,VWS V14.01,2013-02-26 22:24:00,
2013-02-26 17:26:00,34.0,-99.9,-100.00,NE,46,0.0,0.0,-999,56.01,,---,0.49,VWS V14.01,2013-02-26 22:26:00,
2013-02-26 17:27:00,34.0,-99.9,-100.00,NE,46,0.0,0.0,-999,56.01,,---,0.49,VWS V14.01,2013-02-26 22:27:00,
2013-02-26 17:29:00,34.0,-99.9,-100.00,ENE,72,3.4,10.9,-999,0.03,,---,0.50,VWS V14.01,2013-02-26 22:29:00,
2013-02-26 17:31:00,34.8,-99.9,-100.00,ESE,114,12.1,13.2,-999,0.00,,---,0.51,VWS V14.01,2013-02-26 22:31:00,
2013-02-26 17:32:00,34.3,-99.9,-100.00,ESE,122,7.0,13.2,-999,0.00,,---,0.51,VWS V14.01,2013-02-26 22:32:00,
2013-02-26 17:34:00,33.8,-99.9,-100.00,East,83,0.0,10.3,-999,1.00,,---,0.52,VWS V14.01,2013-02-26 22:34:00,
2013-02-26 17:36:00,34.3,-99.9,-100.00,East,83,0.0,0.0,-999,99.99,,---,0.53,VWS V14.01,2013-02-26 22:36:00,
2013-02-26 17:37:00,34.3,-99.9,-100.00,East,83,0.0,0.0,-999,99.99,,---,0.54,VWS V14.01,2013-02-26 22:37:00,
2013-02-26 17:39:00,34.3,-99.9,-100.00,ESE,117,4.5,9.3,-999,1.12,,---,0.56,VWS V14.01,2013-02-26 22:39:00,
2013-02-26 17:41:00,34.0,-99.9,-100.00,ENE,73,8.1,8.4,-999,99.99,,---,0.57,VWS V14.01,2013-02-26 22:41:00,
2013-02-26 17:42:00,34.0,-99.9,-100.00,ESE,114,5.3,8.1,-999,0.00,,---,0.57,VWS V14.01,2013-02-26 22:42:00,
2013-02-26 17:44:00,34.0,-99.9,-100.00,East,86,5.0,9.1,-999,19.96,,---,0.57,VWS V14.01,2013-02-26 22:44:00,
2013-02-26 17:46:00,34.0,-99.9,-100.00,East,82,0.0,0.0,-999,0.00,,---,0.57,VWS V14.01,2013-02-26 22:46:00,
2013-02-26 17:47:00,33.8,-99.9,-100.00,ENE,69,7.1,7.1,-999,57.44,,---,0.57,VWS V14.01,2013-02-26 22:47:00,
2013-02-26 17:49:00,34.3,-99.9,-100.00,East,82,0.0,12.7,-999,0.00,,---,0.57,VWS V14.01,2013-02-26 22:49:00,
2013-02-26 17:51:00,34.0,-99.9,-100.00,East,83,8.7,9.5,-999,0.00,,---,0.57,VWS V14.01,2013-02-26 22:51:00,
2013-02-26 17:52:00,34.3,-99.9,-100.00,ESE,110,7.2,8.7,-999,96.17,,---,0.57,VWS V14.01,2013-02-26 22:52:00,
2013-02-26 17:54:00,34.0,-99.9,-100.00,East,96,8.0,10.7,-999,23.08,,---,0.57,VWS V14.01,2013-02-26 22:54:00,
2013-02-26 17:57:00,34.3,-99.9,-100.00,ESE,105,0.0,0.0,-999,19.96,,---,0.58,VWS V14.01,2013-02-26 22:57:00,
2013-02-26 18:00:00,34.6,-99.9,-100.00,ENE,59,2.2,4.6,-999,57.44,,---,0.58,VWS V14.01,2013-02-26 23:00:00,
2013-02-26 18:02:00,34.3,-99.9,-100.00,East,86,4.1,8.3,-999,0.63,,---,0.58,VWS V14.01,2013-02-26 23:02:00,
2013-02-26 18:05:00,34.3,-99.9,-100.00,East,93,9.4,9.4,-999,0.00,,---,0.58,VWS V14.01,2013-02-26 23:05:00,
2013-02-26 18:07:00,34.3,-99.9,-100.00,ENE,77,8.8,9.4,-999,56.69,,---,0.58,VWS V14.01,2013-02-26 23:07:00,
2013-02-26 18:10:00,34.0,-99.9,-100.00,ESE,104,4.9,6.3,-999,99.99,,---,0.59,VWS V14.01,2013-02-26 23:10:00,
2013-02-26 18:12:00,34.6,-99.9,-100.00,ENE,66,6.4,7.2,-999,99.99,,---,0.59,VWS V14.01,2013-02-26 23:12:00,
2013-02-26 18:13:00,34.8,-99.9,-100.00,East,79,5.7,7.2,-999,16.44,,---,0.59,VWS V14.01,2013-02-26 23:13:00,
2013-02-26 18:15:00,34.3,-99.9,-100.00,ENE,76,4.7,6.6,-999,0.00,,---,0.59,VWS V14.01,2013-02-26 23:15:00,
2013-02-26 18:17:00,34.6,-99.9,-100.00,East,83,8.7,8.7,-999,0.00,,---,0.59,VWS V14.01,2013-02-26 23:17:00,
2013-02-26 18:18:00,34.6,-99.9,-100.00,East,84,8.6,8.9,-999,8.28,,---,0.59,VWS V14.01,2013-02-26 23:18:00,
2013-02-26 18:20:00,34.8,-99.9,-100.00,ENE,60,9.6,13.5,-999,3.59,,---,0.59,VWS V14.01,2013-02-26 23:20:00,
2013-02-26 18:22:00,34.3,-99.9,-100.00,ENE,72,8.3,8.3,-999,0.63,,---,0.60,VWS V14.01,2013-02-26 23:22:00,
2013-02-26 18:23:00,34.3,-99.9,-100.00,East,94,7.9,8.3,-999,2.50,,---,0.60,VWS V14.01,2013-02-26 23:23:00,
2013-02-26 18:25:00,34.6,-99.9,-100.00,East,98,7.0,7.0,-999,99.99,,---,0.60,VWS V14.01,2013-02-26 23:25:00,
2013-02-26 18:27:00,34.6,-99.9,-100.00,ESE,103,4.5,6.3,-999,0.00,,---,0.61,VWS V14.01,2013-02-26 23:27:00,
2013-02-26 18:28:00,34.3,-99.9,-100.00,East,79,5.5,7.5,-999,0.00,,---,0.61,VWS V14.01,2013-02-26 23:28:00,
2013-02-26 18:30:00,34.3,-99.9,-100.00,ENE,75,0.0,0.0,-999,0.00,,---,0.61,VWS V14.01,2013-02-26 23:30:00,
2013-02-26 18:32:00,34.3,-99.9,-100.00,East,86,3.4,6.1,-999,0.00,,---,0.61,VWS V14.01,2013-02-26 23:32:00,
2013-02-26 18:33:00,34.8,-99.9,-100.00,East,86,0.0,3.4,-999,99.99,,---,0.61,VWS V14.01,2013-02-26 23:33:00,
2013-02-26 18:35:00,34.8,-99.9,-100.00,ENE,60,0.0,3.5,-999,0.00,,---,0.62,VWS V14.01,2013-02-26 23:35:00,
2013-02-26 18:37:00,34.6,-99.9,-100.00,ENE,72,0.0,4.2,-999,8.70,,---,0.62,VWS V14.01,2013-02-26 23:37:00,
2013-02-26 18:38:00,34.8,-99.9,-100.00,East,89,8.6,10.5,-999,10.60,,---,0.62,VWS V14.01,2013-02-26 23:38:00,
2013-02-26 18:40:00,34.6,-99.9,-100.00,ESE,118,3.0,10.7,-999,0.00,,---,0.62,VWS V14.01,2013-02-26 23:40:00,
2013-02-26 18:42:00,34.8,-99.9,-100.00,East,82,5.5,8.5,-999,19.96,,---,0.63,VWS V14.01,2013-02-26 23:42:00,
2013-02-26 18:43:00,34.8,-99.9,-100.00,SE,134,2.3,8.9,-999,0.00,,---,0.63,VWS V14.01,2013-02-26 23:43:00,
2013-02-26 18:45:00,34.8,-99.9,-100.00,NE,39,4.3,8.6,-999,0.00,,---,0.63,VWS V14.01,2013-02-26 23:45:00,
2013-02-26 18:47:00,34.6,-99.9,-100.00,East,87,6.5,12.4,-999,0.00,,---,0.63,VWS V14.01,2013-02-26 23:47:00,
2013-02-26 18:48:00,34.6,-99.9,-100.00,NE,56,7.3,8.6,-999,0.00,,---,0.63,VWS V14.01,2013-02-26 23:48:00,
2013-02-26 18:51:00,34.6,-99.9,-100.00,East,79,8.5,11.4,-999,99.99,,---,0.63,VWS V14.01,2013-02-26 23:51:00,
2013-02-26 18:53:00,34.6,-99.9,-100.00,East,98,9.9,9.9,-999,0.00,,---,0.63,VWS V14.01,2013-02-26 23:53:00,
2013-02-26 18:56:00,34.6,-99.9,-100.00,ENE,73,8.5,8.6,-999,0.00,,---,0.64,VWS V14.01,2013-02-26 23:56:00,
2013-02-26 18:58:00,34.6,-99.9,-100.00,ESE,103,5.1,9.0,-999,0.00,,---,0.64,VWS V14.01,2013-02-26 23:58:00,
2013-02-26 19:01:00,34.0,-99.9,-100.00,East,87,5.5,6.3,-999,0.00,,---,0.64,VWS V14.01,2013-02-27 00:01:00,
2013-02-26 19:03:00,34.3,-99.9,-100.00,East,79,6.8,7.2,-999,99.99,,---,0.64,VWS V14.01,2013-02-27 00:03:00,
2013-02-26 19:04:00,34.0,-99.9,-100.00,NE,52,8.3,8.7,-999,0.03,,---,0.64,VWS V14.01,2013-02-27 00:04:00,
2013-02-26 19:07:00,34.3,-99.9,-100.00,East,86,4.9,13.4,-999,96.17,,---,0.64,VWS V14.01,2013-02-27 00:07:00,
2013-02-26 19:08:00,34.3,-99.9,-100.00,ENE,72,8.3,12.0,-999,3.56,,---,0.64,VWS V14.01,2013-02-27 00:08:00,
2013-02-26 19:09:00,33.8,-99.9,-100.00,East,91,8.9,8.9,-999,0.00,,---,0.64,VWS V14.01,2013-02-27 00:09:00,
2013-02-26 19:12:00,33.8,-99.9,-100.00,NE,38,8.0,8.0,-999,0.00,,---,0.65,VWS V14.01,2013-02-27 00:12:00,
2013-02-26 19:13:00,33.8,-99.9,-100.00,East,94,9.1,9.1,-999,99.99,,---,0.65,VWS V14.01,2013-02-27 00:13:00,
2013-02-26 19:14:00,34.0,-99.9,-100.00,ENE,70,11.2,11.2,-999,54.97,,---,0.65,VWS V14.01,2013-02-27 00:14:00,
2013-02-26 19:17:00,33.5,-99.9,-100.00,East,89,10.9,10.9,-999,99.99,,---,0.65,VWS V14.01,2013-02-27 00:17:00,
2013-02-26 19:18:00,33.5,-99.9,-100.00,ENE,63,9.6,16.2,-999,2.55,,---,0.65,VWS V14.01,2013-02-27 00:18:00,
2013-02-26 19:19:00,33.5,-99.9,-100.00,ENE,63,9.6,16.2,-999,2.55,,---,0.65,VWS V14.01,2013-02-27 00:19:00,
2013-02-26 19:22:00,33.3,-99.9,-100.00,ENE,72,9.3,12.2,-999,99.99,,---,0.65,VWS V14.01,2013-02-27 00:22:00,
2013-02-26 19:24:00,33.3,-99.9,-100.00,East,96,9.5,9.5,-999,57.44,,---,0.66,VWS V14.01,2013-02-27 00:24:00,
2013-02-26 19:27:00,33.0,-99.9,-100.00,ENE,70,10.6,11.6,-999,0.00,,---,0.66,VWS V14.01,2013-02-27 00:27:00,
2013-02-26 19:29:00,33.3,-99.9,-100.00,ENE,72,8.2,13.1,-999,99.99,,---,0.66,VWS V14.01,2013-02-27 00:29:00,
2013-02-26 19:32:00,33.5,-99.9,-100.00,ENE,62,8.6,8.9,-999,0.00,,---,0.67,VWS V14.01,2013-02-27 00:32:00,
2013-02-26 19:33:00,33.5,-99.9,-100.00,East,86,11.2,15.8,-999,99.99,,---,0.67,VWS V14.01,2013-02-27 00:33:00,
2013-02-26 19:34:00,33.3,-99.9,-100.00,East,82,8.9,11.2,-999,2.55,,---,0.68,VWS V14.01,2013-02-27 00:34:00,
2013-02-26 19:37:00,33.5,-99.9,-100.00,East,83,9.3,11.2,-999,57.44,,---,0.68,VWS V14.01,2013-02-27 00:37:00,
2013-02-26 19:39:00,33.3,-99.9,-100.00,ENE,60,10.9,12.4,-999,0.00,,---,0.69,VWS V14.01,2013-02-27 00:39:00,
2013-02-26 19:43:00,33.5,-99.9,-100.00,East,90,6.3,6.8,-999,99.99,,---,0.70,VWS V14.01,2013-02-27 00:43:00,
2013-02-26 19:44:00,33.0,-99.9,-100.00,East,86,12.6,12.6,-999,57.44,,---,0.70,VWS V14.01,2013-02-27 00:44:00,
2013-02-26 19:45:00,33.5,-99.9,-100.00,East,82,8.6,14.0,-999,0.00,,---,0.70,VWS V14.01,2013-02-27 00:45:00,
2013-02-26 19:48:00,33.3,-99.9,-100.00,East,93,7.6,8.6,-999,99.99,,---,0.71,VWS V14.01,2013-02-27 00:48:00,
2013-02-26 19:49:00,34.0,-99.9,-100.00,East,93,9.6,9.6,-999,99.99,,---,0.71,VWS V14.01,2013-02-27 00:49:00,
2013-02-26 19:50:00,33.8,-99.9,-100.00,NE,55,6.4,9.2,-999,0.00,,---,0.71,VWS V14.01,2013-02-27 00:50:00,
2013-02-26 19:53:00,34.0,-99.9,-100.00,ENE,72,8.5,11.6,-999,0.00,,---,0.72,VWS V14.01,2013-02-27 00:53:00,
2013-02-26 19:54:00,33.8,-99.9,-100.00,East,79,11.9,11.9,-999,0.00,,---,0.72,VWS V14.01,2013-02-27 00:54:00,
2013-02-26 19:55:00,34.0,-99.9,-100.00,East,98,0.0,9.1,-999,0.00,,---,0.72,VWS V14.01,2013-02-27 00:55:00,
2013-02-26 19:58:00,34.0,-99.9,-100.00,East,101,7.0,11.2,-999,0.00,,---,0.72,VWS V14.01,2013-02-27 00:58:00,
2013-02-26 19:59:00,34.0,-99.9,-100.00,ENE,70,6.1,8.0,-999,0.00,,---,0.72,VWS V14.01,2013-02-27 00:59:00,
2013-02-26 20:00:00,34.0,-99.9,-100.00,East,84,4.4,9.6,-999,99.99,,---,0.73,VWS V14.01,2013-02-27 01:00:00,
2013-02-26 20:03:00,33.8,-99.9,-100.00,ENE,58,11.4,12.4,-999,99.99,,---,0.73,VWS V14.01,2013-02-27 01:03:00,
2013-02-26 20:04:00,34.0,-99.9,-100.00,ENE,75,8.7,8.7,-999,10.18,,---,0.73,VWS V14.01,2013-02-27 01:04:00,
2013-02-26 20:05:00,33.5,-99.9,-100.00,NE,52,7.8,9.3,-999,57.56,,---,0.73,VWS V14.01,2013-02-27 01:05:00,
2013-02-26 20:09:00,33.8,-99.9,-100.00,East,79,1.3,6.5,-999,0.00,,---,0.74,VWS V14.01,2013-02-27 01:09:00,
2013-02-26 20:10:00,33.8,-99.9,-100.00,NE,34,11.7,11.7,-999,0.00,,---,0.74,VWS V14.01,2013-02-27 01:10:00,
2013-02-26 20:14:00,34.3,-99.9,-100.00,East,100,6.0,9.3,-999,84.84,,---,0.74,VWS V14.01,2013-02-27 01:14:00,
2013-02-26 20:15:00,34.0,-99.9,-100.00,ENE,76,9.9,9.9,-999,99.99,,---,0.74,VWS V14.01,2013-02-27 01:15:00,
2013-02-26 20:19:00,34.0,-99.9,-100.00,East,91,7.6,10.7,-999,20.97,,---,0.74,VWS V14.01,2013-02-27 01:19:00,
2013-02-26 20:20:00,34.0,-99.9,-100.00,NE,56,6.0,7.3,-999,1.00,,---,0.74,VWS V14.01,2013-02-27 01:20:00,
2013-02-26 20:24:00,34.3,-99.9,-100.00,East,80,7.5,7.5,-999,0.00,,---,0.75,VWS V14.01,2013-02-27 01:24:00,
2013-02-26 20:25:00,34.3,-99.9,-100.00,ENE,75,9.8,12.7,-999,99.99,,---,0.75,VWS V14.01,2013-02-27 01:25:00,
2013-02-26 20:26:00,34.3,-99.9,-100.00,NE,51,4.2,4.2,-999,23.52,,---,0.75,VWS V14.01,2013-02-27 01:26:00,
2013-02-26 20:29:00,34.0,-99.9,-100.00,East,79,5.8,9.3,-999,0.00,,---,0.75,VWS V14.01,2013-02-27 01:29:00,
2013-02-26 20:30:00,34.6,-99.9,-100.00,NE,52,6.1,6.1,-999,0.00,,---,0.75,VWS V14.01,2013-02-27 01:30:00,
2013-02-26 20:31:00,34.0,-99.9,-100.00,ENE,72,0.0,0.0,-999,56.03,,---,0.75,VWS V14.01,2013-02-27 01:31:00,
2013-02-26 20:34:00,34.6,-99.9,-100.00,SE,125,3.5,4.5,-999,99.99,,---,0.75,VWS V14.01,2013-02-27 01:34:00,
2013-02-26 20:35:00,34.6,-99.9,-100.00,SE,125,3.5,4.5,-999,99.99,,---,0.75,VWS V14.01,2013-02-27 01:35:00,
2013-02-26 20:36:00,34.6,-99.9,-100.00,ENE,63,0.0,3.2,-999,19.96,,---,0.75,VWS V14.01,2013-02-27 01:36:00,
2013-02-26 20:40:00,34.8,-99.9,-100.00,East,84,5.9,5.9,-999,84.85,,---,0.75,VWS V14.01,2013-02-27 01:40:00,
2013-02-26 20:41:00,34.6,-99.9,-100.00,East,79,0.0,0.0,-999,0.00,,---,0.75,VWS V14.01,2013-02-27 01:41:00,
2013-02-26 20:45:00,34.6,-99.9,-100.00,ESE,114,6.0,7.7,-999,99.99,,---,0.75,VWS V14.01,2013-02-27 01:45:00,
2013-02-26 20:46:00,35.0,-99.9,-100.00,ENE,65,0.0,9.4,-999,3.59,,---,0.75,VWS V14.01,2013-02-27 01:46:00,
2013-02-26 20:50:00,35.0,-99.9,-100.00,ESE,114,7.1,9.8,-999,0.00,,---,0.75,VWS V14.01,2013-02-27 01:50:00,
2013-02-26 20:51:00,34.8,-99.9,-100.00,ESE,107,5.6,5.6,-999,0.00,,---,0.75,VWS V14.01,2013-02-27 01:51:00,
2013-02-26 20:55:00,34.8,-99.9,-100.00,East,79,5.2,5.8,-999,0.00,,---,0.75,VWS V14.01,2013-02-27 01:55:00,
2013-02-26 20:56:00,35.0,-99.9,-100.00,ENE,69,2.9,6.1,-999,0.00,,---,0.75,VWS V14.01,2013-02-27 01:56:00,
2013-02-26 21:00:00,34.8,-99.9,-100.00,NE,55,8.1,8.1,-999,0.00,,---,0.75,VWS V14.01,2013-02-27 02:00:00,
2013-02-26 21:01:00,34.8,-99.9,-100.00,ENE,77,4.9,8.1,-999,0.00,,---,0.75,VWS V14.01,2013-02-27 02:01:00,
2013-02-26 21:05:00,35.3,-99.9,-100.00,ESE,108,4.4,7.9,-999,1.00,,---,0.75,VWS V14.01,2013-02-27 02:05:00,
2013-02-26 21:06:00,35.5,-99.9,-100.00,ESE,108,0.0,0.0,-999,0.00,,---,0.75,VWS V14.01,2013-02-27 02:06:00,
2013-02-26 21:10:00,35.0,-99.9,-100.00,ESE,105,3.4,6.6,-999,0.63,,---,0.75,VWS V14.01,2013-02-27 02:10:00,
2013-02-26 21:11:00,35.5,-99.9,-100.00,ESE,105,0.0,0.0,-999,1.00,,---,0.75,VWS V14.01,2013-02-27 02:11:00,
2013-02-26 21:15:00,35.0,-99.9,-100.00,SE,124,4.3,8.5,-999,0.00,,---,0.75,VWS V14.01,2013-02-27 02:15:00,
2013-02-26 21:16:00,35.7,-99.9,-100.00,ENE,62,4.5,11.2,-999,0.00,,---,0.75,VWS V14.01,2013-02-27 02:16:00,
2013-02-26 21:17:00,35.5,-99.9,-100.00,ENE,60,0.0,5.5,-999,99.99,,---,0.75,VWS V14.01,2013-02-27 02:17:00,
2013-02-26 21:20:00,35.5,-99.9,-100.00,ENE,76,5.7,9.3,-999,35.04,,---,0.75,VWS V14.01,2013-02-27 02:20:00,
2013-02-26 21:21:00,35.7,-99.9,-100.00,East,86,8.8,9.9,-999,0.00,,---,0.75,VWS V14.01,2013-02-27 02:21:00,
2013-02-26 21:22:00,35.5,-99.9,-100.00,SSE,162,0.0,17.3,-999,0.00,,---,0.75,VWS V14.01,2013-02-27 02:22:00,
2013-02-26 21:26:00,35.3,-99.9,-100.00,East,91,4.3,8.3,-999,0.00,,---,0.75,VWS V14.01,2013-02-27 02:26:00,
2013-02-26 21:27:00,35.5,-99.9,-100.00,East,84,7.8,7.8,-999,0.00,,---,0.75,VWS V14.01,2013-02-27 02:27:00,
2013-02-26 21:28:00,35.3,-99.9,-100.00,ESE,120,9.1,9.1,-999,0.00,,---,0.75,VWS V14.01,2013-02-27 02:28:00,
2013-02-26 21:31:00,35.3,-99.9,-100.00,ENE,76,0.0,5.0,-999,0.00,,---,0.75,VWS V14.01,2013-02-27 02:31:00,
2013-02-26 21:32:00,35.3,-99.9,-100.00,SE,132,9.4,10.1,-999,0.00,,---,0.75,VWS V14.01,2013-02-27 02:32:00,
2013-02-26 21:34:00,35.7,-99.9,-100.00,ENE,62,10.4,10.4,-999,99.99,,---,0.75,VWS V14.01,2013-02-27 02:34:00,
2013-02-26 21:36:00,35.5,-99.9,-100.00,East,82,0.0,0.0,-999,0.00,,---,0.75,VWS V14.01,2013-02-27 02:36:00,
2013-02-26 21:37:00,35.5,-99.9,-100.00,East,91,5.9,5.9,-999,68.32,,---,0.75,VWS V14.01,2013-02-27 02:37:00,
2013-02-26 21:39:00,35.5,-99.9,-100.00,East,84,7.0,7.0,-999,0.03,,---,0.75,VWS V14.01,2013-02-27 02:39:00,
2013-02-26 21:41:00,35.3,-99.9,-100.00,SSE,166,7.0,7.0,-999,99.99,,---,0.75,VWS V14.01,2013-02-27 02:41:00,
2013-02-26 21:42:00,35.5,-99.9,-100.00,NNE,27,4.5,8.3,-999,0.03,,---,0.75,VWS V14.01,2013-02-27 02:42:00,
2013-02-26 21:43:00,35.5,-99.9,-100.00,ESE,114,0.0,8.3,-999,99.99,,---,0.75,VWS V14.01,2013-02-27 02:43:00,
2013-02-26 21:44:00,35.5,-99.9,-100.00,ESE,107,8.8,9.6,-999,0.00,,---,0.75,VWS V14.01,2013-02-27 02:44:00,
2013-02-26 21:46:00,35.3,-99.9,-100.00,ENE,76,0.0,6.6,-999,57.56,,---,0.75,VWS V14.01,2013-02-27 02:46:00,
2013-02-26 21:47:00,35.5,-99.9,-100.00,ENE,76,5.1,5.1,-999,0.00,,---,0.75,VWS V14.01,2013-02-27 02:47:00,
2013-02-26 21:48:00,35.7,-99.9,-100.00,East,89,6.2,7.1,-999,0.00,,---,0.75,VWS V14.01,2013-02-27 02:48:00,
2013-02-26 21:49:00,35.7,-99.9,-100.00,ENE,69,7.0,7.0,-999,0.00,,---,0.75,VWS V14.01,2013-02-27 02:49:00,
2013-02-26 21:51:00,35.7,-99.9,-100.00,ENE,58,5.9,8.9,-999,0.00,,---,0.75,VWS V14.01,2013-02-27 02:51:00,
2013-02-26 21:52:00,36.0,-99.9,-100.00,East,89,6.3,7.4,-999,0.00,,---,0.75,VWS V14.01,2013-02-27 02:52:00,
2013-02-26 21:53:00,35.7,-99.9,-100.00,NE,56,5.0,6.2,-999,0.00,,---,0.75,VWS V14.01,2013-02-27 02:53:00,
2013-02-26 21:54:00,35.5,-99.9,-100.00,ESE,108,3.1,6.0,-999,5.11,,---,0.75,VWS V14.01,2013-02-27 02:54:00,
2013-02-26 21:56:00,35.7,-99.9,-100.00,NNE,32,2.1,7.0,-999,1.00,,---,0.75,VWS V14.01,2013-02-27 02:56:00,
2013-02-26 21:57:00,35.7,-99.9,-100.00,East,98,11.7,11.7,-999,0.00,,---,0.75,VWS V14.01,2013-02-27 02:57:00,
2013-02-26 21:58:00,35.5,-99.9,-100.00,East,93,5.4,7.3,-999,30.43,,---,0.75,VWS V14.01,2013-02-27 02:58:00,
2013-02-26 21:59:00,35.7,-99.9,-100.00,East,100,3.5,8.1,-999,0.00,,---,0.75,VWS V14.01,2013-02-27 02:59:00,
2013-02-26 22:01:00,35.5,-99.9,-100.00,NE,41,9.9,11.8,-999,0.00,,---,0.75,VWS V14.01,2013-02-27 03:01:00,
2013-02-26 22:02:00,35.5,-99.9,-100.00,East,87,7.8,9.9,-999,0.00,,---,0.75,VWS V14.01,2013-02-27 03:02:00,
2013-02-26 22:03:00,35.7,-99.9,-100.00,SSE,150,3.2,7.1,-999,1.00,,---,0.75,VWS V14.01,2013-02-27 03:03:00,
2013-02-26 22:04:00,36.0,-99.9,-100.00,SE,138,8.1,8.1,-999,0.00,,---,0.75,VWS V14.01,2013-02-27 03:04:00,
2013-02-26 22:06:00,35.7,-99.9,-100.00,ENE,73,0.0,0.0,-999,2.50,,---,0.75,VWS V14.01,2013-02-27 03:06:00,
2013-02-26 22:07:00,35.7,-99.9,-100.00,East,87,8.0,8.0,-999,2.50,,---,0.75,VWS V14.01,2013-02-27 03:07:00,
2013-02-26 22:08:00,36.3,-99.9,-100.00,ENE,58,5.7,8.0,-999,8.28,,---,0.75,VWS V14.01,2013-02-27 03:08:00,
2013-02-26 22:09:00,36.0,-99.9,-100.00,SE,132,0.0,7.5,-999,1.00,,---,0.75,VWS V14.01,2013-02-27 03:09:00,
2013-02-26 22:11:00,35.5,-99.9,-100.00,SE,128,7.2,9.3,-999,0.00,,---,0.75,VWS V14.01,2013-02-27 03:11:00,
2013-02-26 22:12:00,36.0,-99.9,-100.00,SE,131,8.3,9.3,-999,0.00,,---,0.75,VWS V14.01,2013-02-27 03:12:00,
2013-02-26 22:13:00,36.3,-99.9,-100.00,SE,142,3.5,9.3,-999,0.00,,---,0.75,VWS V14.01,2013-02-27 03:13:00,
2013-02-26 22:14:00,36.3,-99.9,-100.00,NE,38,3.4,4.8,-999,0.00,,---,0.75,VWS V14.01,2013-02-27 03:14:00,
2013-02-26 22:17:00,36.0,-99.9,-100.00,ENE,65,6.1,6.1,-999,1.47,,---,0.75,VWS V14.01,2013-02-27 03:17:00,
2013-02-26 22:18:00,36.0,-99.9,-100.00,ENE,75,8.3,8.4,-999,0.00,,---,0.75,VWS V14.01,2013-02-27 03:18:00,
2013-02-26 22:20:00,36.3,-99.9,-100.00,SSE,152,4.5,10.7,-999,1.40,,---,0.75,VWS V14.01,2013-02-27 03:20:00,
2013-02-26 22:22:00,36.5,-99.9,-100.00,ENE,58,0.0,0.0,-999,68.32,,---,0.75,VWS V14.01,2013-02-27 03:22:00,
2013-02-26 22:23:00,35.7,-99.9,-100.00,NE,56,0.0,9.3,-999,1.44,,---,0.75,VWS V14.01,2013-02-27 03:23:00,
2013-02-26 22:25:00,36.3,-99.9,-100.00,NNE,31,4.5,7.1,-999,0.00,,---,0.75,VWS V14.01,2013-02-27 03:25:00,
2013-02-26 22:27:00,36.3,-99.9,-100.00,East,100,4.2,8.4,-999,99.99,,---,0.75,VWS V14.01,2013-02-27 03:27:00,
2013-02-26 22:28:00,36.0,-99.9,-100.00,ENE,72,4.7,4.7,-999,65.79,,---,0.75,VWS V14.01,2013-02-27 03:28:00,
2013-02-26 22:30:00,36.0,-99.9,-100.00,East,79,0.0,0.0,-999,99.99,,---,0.75,VWS V14.01,2013-02-27 03:30:00,
2013-02-26 22:32:00,36.3,-99.9,-100.00,East,91,8.9,9.4,-999,0.00,,---,0.75,VWS V14.01,2013-02-27 03:32:00,
2013-02-26 22:33:00,36.5,-99.9,-100.00,SE,143,7.0,10.9,-999,99.99,,---,0.75,VWS V14.01,2013-02-27 03:33:00,
2013-02-26 22:35:00,36.3,-99.9,-100.00,East,100,5.1,5.8,-999,68.32,,---,0.75,VWS V14.01,2013-02-27 03:35:00,
2013-02-26 22:37:00,36.3,-99.9,-100.00,ESE,108,9.1,9.1,-999,0.00,,---,0.75,VWS V14.01,2013-02-27 03:37:00,
2013-02-26 22:38:00,36.5,-99.9,-100.00,ESE,110,5.3,9.1,-999,0.00,,---,0.75,VWS V14.01,2013-02-27 03:38:00,
2013-02-26 22:40:00,36.3,-99.9,-100.00,ENE,58,0.0,0.0,-999,99.99,,---,0.75,VWS V14.01,2013-02-27 03:40:00,
2013-02-26 22:42:00,36.5,-99.9,-100.00,SE,145,8.9,11.2,-999,0.00,,---,0.75,VWS V14.01,2013-02-27 03:42:00,
2013-02-26 22:43:00,36.3,-99.9,-100.00,SSE,153,5.4,11.2,-999,0.00,,---,0.75,VWS V14.01,2013-02-27 03:43:00,
2013-02-26 22:44:00,36.0,-99.9,-100.00,NE,55,5.2,5.2,-999,99.99,,---,0.75,VWS V14.01,2013-02-27 03:44:00,
2013-02-26 22:45:00,36.5,-99.9,-100.00,SE,139,5.9,7.5,-999,0.00,,---,0.75,VWS V14.01,2013-02-27 03:45:00,
2013-02-26 22:48:00,36.5,-99.9,-100.00,ESE,121,6.6,8.6,-999,81.96,,---,0.75,VWS V14.01,2013-02-27 03:48:00,
2013-02-26 22:49:00,36.5,-99.9,-100.00,ESE,104,5.5,8.6,-999,81.96,,---,0.75,VWS V14.01,2013-02-27 03:49:00,
2013-02-26 22:50:00,36.3,-99.9,-100.00,East,84,8.5,10.7,-999,0.00,,---,0.75,VWS V14.01,2013-02-27 03:50:00,
2013-02-26 22:53:00,36.3,-99.9,-100.00,SSW,210,5.0,6.2,-999,0.12,,---,0.75,VWS V14.01,2013-02-27 03:53:00,
2013-02-26 22:54:00,36.0,-99.9,-100.00,ESE,104,6.8,6.8,-999,99.99,,---,0.75,VWS V14.01,2013-02-27 03:54:00,
2013-02-26 22:55:00,36.3,-99.9,-100.00,ENE,77,7.8,15.3,-999,0.00,,---,0.75,VWS V14.01,2013-02-27 03:55:00,
2013-02-26 22:58:00,36.3,-99.9,-100.00,SE,136,6.4,6.4,-999,0.00,,---,0.75,VWS V14.01,2013-02-27 03:58:00,
2013-02-26 22:59:00,36.3,-99.9,-100.00,ENE,76,6.0,8.1,-999,0.00,,---,0.75,VWS V14.01,2013-02-27 03:59:00,
2013-02-26 23:00:00,36.0,-99.9,-100.00,NE,53,0.0,5.7,-999,99.99,,---,0.75,VWS V14.01,2013-02-27 04:00:00,